2016 Cux-Wetter.de -Die Nutzung der Wetterdaten nur mit ausdrcklicher Genehmigung
Wetterdaten: Donnerstag, 07.09.2017
Datum Zeit Temp. A. Feuchte A. Luftdruck Regen Wind Richtung Richtung Sonnenschein Solar Taupunkt Windchill Windben
07.09.2017 00:00 13,8 C 89 % 1010,4 hPa 0,0 l/m 7,2 km/h (2 Bft) W 271 0 min 0 W/m 12,0 C 13,3 C 16,1 km/h (3 Bft)
07.09.2017 00:03 13,7 C 89 % 1010,3 hPa 0,2 l/m 11,3 km/h (2 Bft) W-NW 286 0 min 0 W/m 11,9 C 11,1 C 19,3 km/h (3 Bft)
07.09.2017 00:06 13,7 C 89 % 1010,2 hPa 0,0 l/m 9,8 km/h (2 Bft) W 260 0 min 0 W/m 11,9 C 11,8 C 17,7 km/h (3 Bft)
07.09.2017 00:09 13,6 C 90 % 1010,2 hPa 0,2 l/m 11,2 km/h (2 Bft) W 267 0 min 0 W/m 12,0 C 11,0 C 20,9 km/h (4 Bft)
07.09.2017 00:12 13,5 C 90 % 1010,2 hPa 0,0 l/m 7,6 km/h (2 Bft) W-NW 282 0 min 0 W/m 11,9 C 12,8 C 14,5 km/h (3 Bft)
07.09.2017 00:15 13,4 C 90 % 1010,1 hPa 0,0 l/m 6,6 km/h (2 Bft) W-SW 245 0 min 0 W/m 11,8 C 13,3 C 12,9 km/h (3 Bft)
07.09.2017 00:18 13,4 C 90 % 1010,2 hPa 0,0 l/m 7,9 km/h (2 Bft) W 271 0 min 0 W/m 11,8 C 12,5 C 19,3 km/h (3 Bft)
07.09.2017 00:21 13,4 C 91 % 1010,1 hPa 0,0 l/m 7,5 km/h (2 Bft) W-NW 296 0 min 0 W/m 12,0 C 12,7 C 14,5 km/h (3 Bft)
07.09.2017 00:24 13,5 C 91 % 1010,2 hPa 0,0 l/m 8,2 km/h (2 Bft) W-NW 289 0 min 0 W/m 12,1 C 12,4 C 19,3 km/h (3 Bft)
07.09.2017 00:27 13,6 C 91 % 1010,3 hPa 0,0 l/m 11,0 km/h (2 Bft) W 276 0 min 0 W/m 12,2 C 11,1 C 29,0 km/h (5 Bft)
07.09.2017 00:30 13,4 C 90 % 1010,2 hPa 0,2 l/m 9,1 km/h (2 Bft) W-NW 290 0 min 0 W/m 11,8 C 11,8 C 22,5 km/h (4 Bft)
07.09.2017 00:33 13,3 C 89 % 1010,2 hPa 0,0 l/m 7,5 km/h (2 Bft) NW 306 0 min 0 W/m 11,5 C 12,6 C 17,7 km/h (3 Bft)
07.09.2017 00:36 13,2 C 89 % 1010,2 hPa 0,0 l/m 4,5 km/h (1 Bft) W-SW 252 0 min 0 W/m 11,4 C 13,2 C 14,5 km/h (3 Bft)
07.09.2017 00:39 13,2 C 89 % 1010,2 hPa 0,0 l/m 6,3 km/h (2 Bft) W 273 0 min 0 W/m 11,4 C 13,2 C 19,3 km/h (3 Bft)
07.09.2017 00:42 13,3 C 90 % 1010,2 hPa 0,0 l/m 8,3 km/h (2 Bft) W 279 0 min 0 W/m 11,7 C 12,1 C 14,5 km/h (3 Bft)
07.09.2017 00:45 13,5 C 90 % 1010,2 hPa 0,0 l/m 10,2 km/h (2 Bft) N 360 0 min 0 W/m 11,9 C 11,4 C 19,3 km/h (3 Bft)
07.09.2017 00:48 13,6 C 89 % 1010,2 hPa 0,0 l/m 10,7 km/h (2 Bft) W-SW 254 0 min 0 W/m 11,8 C 11,2 C 19,3 km/h (3 Bft)
07.09.2017 00:51 13,7 C 89 % 1010,1 hPa 0,0 l/m 8,0 km/h (2 Bft) NW 312 0 min 0 W/m 11,9 C 12,7 C 16,1 km/h (3 Bft)
07.09.2017 00:54 13,8 C 89 % 1010,1 hPa 0,0 l/m 8,7 km/h (2 Bft) W-NW 283 0 min 0 W/m 12,0 C 12,5 C 19,3 km/h (3 Bft)
07.09.2017 00:57 13,9 C 89 % 1010,1 hPa 0,0 l/m 9,2 km/h (2 Bft) W 276 0 min 0 W/m 12,1 C 12,3 C 16,1 km/h (3 Bft)
07.09.2017 01:00 13,9 C 89 % 1010,1 hPa 0,0 l/m 10,9 km/h (2 Bft) W-NW 292 0 min 0 W/m 12,1 C 11,5 C 17,7 km/h (3 Bft)
07.09.2017 01:03 14,0 C 88 % 1010,1 hPa 0,0 l/m 9,6 km/h (2 Bft) NW 304 0 min 0 W/m 12,0 C 12,2 C 16,1 km/h (3 Bft)
07.09.2017 01:06 14,1 C 88 % 1010,1 hPa 0,0 l/m 10,8 km/h (2 Bft) W 261 0 min 0 W/m 12,1 C 11,8 C 25,7 km/h (4 Bft)
07.09.2017 01:09 14,2 C 88 % 1010,1 hPa 0,0 l/m 9,5 km/h (2 Bft) W-NW 285 0 min 0 W/m 12,2 C 12,5 C 17,7 km/h (3 Bft)
07.09.2017 01:12 14,3 C 88 % 1010,1 hPa 0,0 l/m 9,5 km/h (2 Bft) W 281 0 min 0 W/m 12,3 C 12,6 C 22,5 km/h (4 Bft)
07.09.2017 01:15 14,3 C 88 % 1010,2 hPa 0,0 l/m 10,0 km/h (2 Bft) W-NW 294 0 min 0 W/m 12,3 C 12,3 C 24,1 km/h (4 Bft)
07.09.2017 01:18 14,3 C 87 % 1010,2 hPa 0,0 l/m 9,0 km/h (2 Bft) W-SW 258 0 min 0 W/m 12,2 C 12,8 C 19,3 km/h (3 Bft)
07.09.2017 01:21 14,4 C 87 % 1010,2 hPa 0,0 l/m 10,8 km/h (2 Bft) W 270 0 min 0 W/m 12,3 C 12,1 C 22,5 km/h (4 Bft)
07.09.2017 01:24 14,4 C 86 % 1010,2 hPa 0,0 l/m 13,1 km/h (3 Bft) W 262 0 min 0 W/m 12,1 C 11,1 C 25,7 km/h (4 Bft)
07.09.2017 01:27 14,4 C 86 % 1010,1 hPa 0,0 l/m 11,7 km/h (2 Bft) W-NW 290 0 min 0 W/m 12,1 C 11,7 C 20,9 km/h (4 Bft)
07.09.2017 01:30 14,4 C 85 % 1010,0 hPa 0,0 l/m 12,4 km/h (2 Bft) W-NW 284 0 min 0 W/m 11,9 C 11,4 C 24,1 km/h (4 Bft)
07.09.2017 01:33 14,4 C 85 % 1010,0 hPa 0,0 l/m 8,7 km/h (2 Bft) W-NW 300 0 min 0 W/m 11,9 C 13,1 C 17,7 km/h (3 Bft)
07.09.2017 01:36 14,4 C 85 % 1010,0 hPa 0,0 l/m 8,1 km/h (2 Bft) W-SW 256 0 min 0 W/m 11,9 C 13,4 C 19,3 km/h (3 Bft)
07.09.2017 01:39 14,5 C 85 % 1009,9 hPa 0,0 l/m 11,0 km/h (2 Bft) W-SW 257 0 min 0 W/m 12,0 C 12,1 C 22,5 km/h (4 Bft)
07.09.2017 01:42 14,5 C 85 % 1009,9 hPa 0,0 l/m 10,8 km/h (2 Bft) W 271 0 min 0 W/m 12,0 C 12,2 C 22,5 km/h (4 Bft)
07.09.2017 01:45 14,4 C 84 % 1009,9 hPa 0,0 l/m 8,8 km/h (2 Bft) W-NW 299 0 min 0 W/m 11,7 C 13,0 C 16,1 km/h (3 Bft)
07.09.2017 01:48 14,4 C 83 % 1009,9 hPa 0,0 l/m 8,8 km/h (2 Bft) W-NW 287 0 min 0 W/m 11,5 C 13,0 C 17,7 km/h (3 Bft)
07.09.2017 01:51 14,4 C 83 % 1009,9 hPa 0,0 l/m 9,2 km/h (2 Bft) W 264 0 min 0 W/m 11,5 C 12,8 C 20,9 km/h (4 Bft)
07.09.2017 01:54 14,5 C 84 % 1009,8 hPa 0,0 l/m 7,6 km/h (2 Bft) W 277 0 min 0 W/m 11,8 C 13,8 C 14,5 km/h (3 Bft)
07.09.2017 01:57 14,6 C 84 % 1009,8 hPa 0,0 l/m 6,7 km/h (2 Bft) W-NW 286 0 min 0 W/m 11,9 C 14,4 C 11,3 km/h (2 Bft)
07.09.2017 02:00 14,6 C 85 % 1009,8 hPa 0,0 l/m 9,4 km/h (2 Bft) W-SW 247 0 min 0 W/m 12,1 C 13,0 C 19,3 km/h (3 Bft)
07.09.2017 02:03 14,6 C 84 % 1009,7 hPa 0,0 l/m 9,7 km/h (2 Bft) W-NW 294 0 min 0 W/m 11,9 C 12,8 C 19,3 km/h (3 Bft)
07.09.2017 02:06 14,6 C 84 % 1009,8 hPa 0,0 l/m 5,9 km/h (2 Bft) W 278 0 min 0 W/m 11,9 C 14,6 C 16,1 km/h (3 Bft)
07.09.2017 02:09 14,5 C 83 % 1009,7 hPa 0,0 l/m 7,8 km/h (2 Bft) W 280 0 min 0 W/m 11,6 C 13,7 C 14,5 km/h (3 Bft)
07.09.2017 02:12 14,4 C 82 % 1009,8 hPa 0,0 l/m 10,9 km/h (2 Bft) W-NW 298 0 min 0 W/m 11,4 C 12,0 C 25,7 km/h (4 Bft)
07.09.2017 02:15 14,5 C 82 % 1009,7 hPa 0,0 l/m 8,6 km/h (2 Bft) W 259 0 min 0 W/m 11,5 C 13,3 C 19,3 km/h (3 Bft)
07.09.2017 02:18 14,6 C 83 % 1009,7 hPa 0,0 l/m 8,6 km/h (2 Bft) N-NW 327 0 min 0 W/m 11,7 C 13,4 C 16,1 km/h (3 Bft)
07.09.2017 02:21 14,7 C 83 % 1009,7 hPa 0,0 l/m 10,5 km/h (2 Bft) W 278 0 min 0 W/m 11,8 C 12,6 C 22,5 km/h (4 Bft)
07.09.2017 02:24 14,8 C 83 % 1009,7 hPa 0,0 l/m 11,5 km/h (2 Bft) W 280 0 min 0 W/m 11,9 C 12,2 C 24,1 km/h (4 Bft)
07.09.2017 02:27 14,9 C 83 % 1009,6 hPa 0,0 l/m 11,4 km/h (2 Bft) W 271 0 min 0 W/m 12,0 C 12,4 C 19,3 km/h (3 Bft)
07.09.2017 02:30 14,9 C 83 % 1009,7 hPa 0,0 l/m 9,8 km/h (2 Bft) W-NW 302 0 min 0 W/m 12,0 C 13,1 C 24,1 km/h (4 Bft)
07.09.2017 02:33 14,9 C 81 % 1009,6 hPa 0,0 l/m 9,8 km/h (2 Bft) N-NW 340 0 min 0 W/m 11,7 C 13,1 C 22,5 km/h (4 Bft)
07.09.2017 02:36 15,0 C 81 % 1009,7 hPa 0,0 l/m 12,1 km/h (2 Bft) W 262 0 min 0 W/m 11,8 C 12,2 C 22,5 km/h (4 Bft)
07.09.2017 02:39 15,1 C 82 % 1009,7 hPa 0,0 l/m 12,0 km/h (2 Bft) W-NW 292 0 min 0 W/m 12,0 C 12,4 C 29,0 km/h (5 Bft)
07.09.2017 02:42 15,0 C 80 % 1009,7 hPa 0,0 l/m 12,0 km/h (2 Bft) NW 312 0 min 0 W/m 11,6 C 12,3 C 24,1 km/h (4 Bft)
07.09.2017 02:45 14,9 C 79 % 1009,7 hPa 0,0 l/m 11,4 km/h (2 Bft) W-NW 290 0 min 0 W/m 11,3 C 12,4 C 24,1 km/h (4 Bft)
07.09.2017 02:48 14,8 C 78 % 1009,7 hPa 0,0 l/m 12,8 km/h (3 Bft) NW 321 0 min 0 W/m 11,0 C 11,7 C 24,1 km/h (4 Bft)
07.09.2017 02:51 14,8 C 77 % 1009,7 hPa 0,0 l/m 13,9 km/h (3 Bft) W 275 0 min 0 W/m 10,8 C 11,3 C 30,6 km/h (5 Bft)
07.09.2017 02:54 14,8 C 77 % 1009,7 hPa 0,0 l/m 12,7 km/h (3 Bft) W 261 0 min 0 W/m 10,8 C 11,8 C 27,4 km/h (5 Bft)
07.09.2017 02:57 14,9 C 76 % 1009,7 hPa 0,0 l/m 13,1 km/h (3 Bft) W-SW 251 0 min 0 W/m 10,7 C 11,7 C 30,6 km/h (5 Bft)
07.09.2017 03:00 14,9 C 77 % 1009,7 hPa 0,0 l/m 10,6 km/h (2 Bft) NW 308 0 min 0 W/m 10,9 C 12,7 C 20,9 km/h (4 Bft)
07.09.2017 03:03 15,1 C 79 % 1009,6 hPa 0,0 l/m 7,8 km/h (2 Bft) NW 314 0 min 0 W/m 11,5 C 14,3 C 20,9 km/h (4 Bft)
07.09.2017 03:06 15,1 C 79 % 1009,6 hPa 0,0 l/m 12,3 km/h (2 Bft) N-NW 334 0 min 0 W/m 11,5 C 12,3 C 27,4 km/h (5 Bft)
07.09.2017 03:09 15,1 C 79 % 1009,6 hPa 0,0 l/m 13,3 km/h (3 Bft) W 263 0 min 0 W/m 11,5 C 11,9 C 29,0 km/h (5 Bft)
07.09.2017 03:12 15,0 C 78 % 1009,6 hPa 0,0 l/m 9,7 km/h (2 Bft) N-NW 336 0 min 0 W/m 11,2 C 13,3 C 20,9 km/h (4 Bft)
07.09.2017 03:15 15,1 C 80 % 1009,6 hPa 0,0 l/m 10,8 km/h (2 Bft) W 271 0 min 0 W/m 11,7 C 12,9 C 19,3 km/h (3 Bft)
07.09.2017 03:18 15,1 C 80 % 1009,6 hPa 0,0 l/m 8,9 km/h (2 Bft) W 274 0 min 0 W/m 11,7 C 13,7 C 24,1 km/h (4 Bft)
07.09.2017 03:21 15,1 C 79 % 1009,6 hPa 0,0 l/m 10,0 km/h (2 Bft) SW 220 0 min 0 W/m 11,5 C 13,2 C 17,7 km/h (3 Bft)
07.09.2017 03:24 15,1 C 80 % 1009,5 hPa 0,0 l/m 8,1 km/h (2 Bft) N-NW 342 0 min 0 W/m 11,7 C 14,2 C 17,7 km/h (3 Bft)
07.09.2017 03:27 15,1 C 80 % 1009,5 hPa 0,0 l/m 9,3 km/h (2 Bft) W 261 0 min 0 W/m 11,7 C 13,6 C 20,9 km/h (4 Bft)
07.09.2017 03:30 15,1 C 80 % 1009,5 hPa 0,0 l/m 9,7 km/h (2 Bft) W-SW 252 0 min 0 W/m 11,7 C 13,4 C 24,1 km/h (4 Bft)
07.09.2017 03:33 15,1 C 80 % 1009,5 hPa 0,0 l/m 7,8 km/h (2 Bft) W-NW 292 0 min 0 W/m 11,7 C 14,3 C 20,9 km/h (4 Bft)
07.09.2017 03:36 15,1 C 79 % 1009,5 hPa 0,0 l/m 11,5 km/h (2 Bft) W-NW 298 0 min 0 W/m 11,5 C 12,6 C 19,3 km/h (3 Bft)
07.09.2017 03:39 15,1 C 79 % 1009,4 hPa 0,0 l/m 9,2 km/h (2 Bft) W-SW 250 0 min 0 W/m 11,5 C 13,6 C 19,3 km/h (3 Bft)
07.09.2017 03:42 15,1 C 79 % 1009,4 hPa 0,0 l/m 8,9 km/h (2 Bft) W-NW 290 0 min 0 W/m 11,5 C 13,7 C 17,7 km/h (3 Bft)
07.09.2017 03:45 15,2 C 79 % 1009,4 hPa 0,0 l/m 7,5 km/h (2 Bft) W 278 0 min 0 W/m 11,6 C 14,6 C 20,9 km/h (4 Bft)
07.09.2017 03:48 15,1 C 79 % 1009,4 hPa 0,0 l/m 11,9 km/h (2 Bft) NW 323 0 min 0 W/m 11,5 C 12,4 C 20,9 km/h (4 Bft)
07.09.2017 03:51 15,1 C 78 % 1009,5 hPa 0,0 l/m 14,4 km/h (3 Bft) W 277 0 min 0 W/m 11,3 C 11,5 C 22,5 km/h (4 Bft)
07.09.2017 03:54 15,1 C 78 % 1009,5 hPa 0,0 l/m 10,1 km/h (2 Bft) W 277 0 min 0 W/m 11,3 C 13,2 C 19,3 km/h (3 Bft)
07.09.2017 03:57 15,1 C 78 % 1009,5 hPa 0,0 l/m 8,3 km/h (2 Bft) NW 317 0 min 0 W/m 11,3 C 14,0 C 24,1 km/h (4 Bft)
07.09.2017 04:00 15,1 C 78 % 1009,5 hPa 0,0 l/m 11,1 km/h (2 Bft) W 275 0 min 0 W/m 11,3 C 12,8 C 19,3 km/h (3 Bft)
07.09.2017 04:03 15,1 C 78 % 1009,5 hPa 0,0 l/m 9,6 km/h (2 Bft) W 273 0 min 0 W/m 11,3 C 13,4 C 27,4 km/h (5 Bft)
07.09.2017 04:06 15,1 C 79 % 1009,5 hPa 0,0 l/m 9,2 km/h (2 Bft) NW 323 0 min 0 W/m 11,5 C 13,6 C 19,3 km/h (3 Bft)
07.09.2017 04:09 15,1 C 79 % 1009,5 hPa 0,0 l/m 10,4 km/h (2 Bft) W-SW 251 0 min 0 W/m 11,5 C 13,1 C 22,5 km/h (4 Bft)
07.09.2017 04:12 15,1 C 78 % 1009,4 hPa 0,0 l/m 9,2 km/h (2 Bft) W 278 0 min 0 W/m 11,3 C 13,6 C 17,7 km/h (3 Bft)
07.09.2017 04:15 15,2 C 78 % 1009,5 hPa 0,0 l/m 9,6 km/h (2 Bft) N-NW 338 0 min 0 W/m 11,4 C 13,5 C 22,5 km/h (4 Bft)
07.09.2017 04:18 15,2 C 79 % 1009,4 hPa 0,0 l/m 7,5 km/h (2 Bft) W 273 0 min 0 W/m 11,6 C 14,6 C 17,7 km/h (3 Bft)
07.09.2017 04:21 15,2 C 79 % 1009,4 hPa 0,0 l/m 8,9 km/h (2 Bft) W-NW 300 0 min 0 W/m 11,6 C 13,9 C 19,3 km/h (3 Bft)
07.09.2017 04:24 15,2 C 79 % 1009,4 hPa 0,0 l/m 7,2 km/h (2 Bft) W-NW 285 0 min 0 W/m 11,6 C 14,8 C 19,3 km/h (3 Bft)
07.09.2017 04:27 15,2 C 80 % 1009,4 hPa 0,0 l/m 9,4 km/h (2 Bft) W 271 0 min 0 W/m 11,8 C 13,6 C 22,5 km/h (4 Bft)
07.09.2017 04:30 15,1 C 79 % 1009,4 hPa 0,0 l/m 9,4 km/h (2 Bft) W-NW 291 0 min 0 W/m 11,5 C 13,5 C 17,7 km/h (3 Bft)
07.09.2017 04:33 15,1 C 79 % 1009,4 hPa 0,0 l/m 10,0 km/h (2 Bft) W-SW 238 0 min 0 W/m 11,5 C 13,2 C 19,3 km/h (3 Bft)
07.09.2017 04:36 15,1 C 80 % 1009,4 hPa 0,0 l/m 7,2 km/h (2 Bft) NW 317 0 min 0 W/m 11,7 C 14,6 C 12,9 km/h (3 Bft)
07.09.2017 04:39 15,1 C 80 % 1009,4 hPa 0,0 l/m 7,9 km/h (2 Bft) NW 310 0 min 0 W/m 11,7 C 14,3 C 19,3 km/h (3 Bft)
07.09.2017 04:42 15,0 C 80 % 1009,4 hPa 0,0 l/m 10,4 km/h (2 Bft) W-NW 290 0 min 0 W/m 11,6 C 12,9 C 22,5 km/h (4 Bft)
07.09.2017 04:45 15,0 C 80 % 1009,4 hPa 0,0 l/m 9,2 km/h (2 Bft) W-SW 256 0 min 0 W/m 11,6 C 13,5 C 22,5 km/h (4 Bft)
07.09.2017 04:48 14,9 C 79 % 1009,3 hPa 0,0 l/m 11,1 km/h (2 Bft) W-NW 298 0 min 0 W/m 11,3 C 12,5 C 22,5 km/h (4 Bft)
07.09.2017 04:51 14,9 C 79 % 1009,3 hPa 0,0 l/m 8,4 km/h (2 Bft) W-NW 302 0 min 0 W/m 11,3 C 13,8 C 16,1 km/h (3 Bft)
07.09.2017 04:54 14,9 C 79 % 1009,3 hPa 0,0 l/m 8,6 km/h (2 Bft) W 275 0 min 0 W/m 11,3 C 13,7 C 25,7 km/h (4 Bft)
07.09.2017 04:57 15,0 C 79 % 1009,3 hPa 0,0 l/m 5,8 km/h (2 Bft) W-SW 257 0 min 0 W/m 11,4 C 15,0 C 16,1 km/h (3 Bft)
07.09.2017 05:00 15,0 C 78 % 1009,4 hPa 0,0 l/m 9,9 km/h (2 Bft) W-NW 294 0 min 0 W/m 11,2 C 13,2 C 19,3 km/h (3 Bft)
07.09.2017 05:03 15,0 C 78 % 1009,3 hPa 0,0 l/m 10,9 km/h (2 Bft) W 273 0 min 0 W/m 11,2 C 12,7 C 20,9 km/h (4 Bft)
07.09.2017 05:06 15,1 C 79 % 1009,3 hPa 0,0 l/m 8,1 km/h (2 Bft) W 276 0 min 0 W/m 11,5 C 14,2 C 19,3 km/h (3 Bft)
07.09.2017 05:09 15,1 C 79 % 1009,4 hPa 0,0 l/m 10,2 km/h (2 Bft) NW 309 0 min 0 W/m 11,5 C 13,1 C 19,3 km/h (3 Bft)
07.09.2017 05:12 15,1 C 79 % 1009,3 hPa 0,0 l/m 9,2 km/h (2 Bft) W-SW 250 0 min 0 W/m 11,5 C 13,6 C 20,9 km/h (4 Bft)
07.09.2017 05:15 15,2 C 80 % 1009,4 hPa 0,0 l/m 11,0 km/h (2 Bft) NW 325 0 min 0 W/m 11,8 C 12,9 C 19,3 km/h (3 Bft)
07.09.2017 05:18 15,2 C 79 % 1009,4 hPa 0,0 l/m 8,9 km/h (2 Bft) W-SW 253 0 min 0 W/m 11,6 C 13,9 C 19,3 km/h (3 Bft)
07.09.2017 05:21 15,2 C 80 % 1009,4 hPa 0,0 l/m 8,3 km/h (2 Bft) W-NW 294 0 min 0 W/m 11,8 C 14,2 C 25,7 km/h (4 Bft)
07.09.2017 05:24 15,2 C 80 % 1009,4 hPa 0,0 l/m 11,8 km/h (2 Bft) W 277 0 min 0 W/m 11,8 C 12,6 C 29,0 km/h (5 Bft)
07.09.2017 05:27 15,2 C 80 % 1009,4 hPa 0,0 l/m 10,7 km/h (2 Bft) W-SW 248 0 min 0 W/m 11,8 C 13,0 C 19,3 km/h (3 Bft)
07.09.2017 05:30 15,2 C 80 % 1009,3 hPa 0,0 l/m 10,2 km/h (2 Bft) NW 310 0 min 0 W/m 11,8 C 13,2 C 22,5 km/h (4 Bft)
07.09.2017 05:33 15,1 C 79 % 1009,3 hPa 0,0 l/m 10,4 km/h (2 Bft) W 261 0 min 0 W/m 11,5 C 13,1 C 22,5 km/h (4 Bft)
07.09.2017 05:36 15,1 C 80 % 1009,3 hPa 0,0 l/m 11,2 km/h (2 Bft) W 260 0 min 0 W/m 11,7 C 12,7 C 22,5 km/h (4 Bft)
07.09.2017 05:39 15,1 C 80 % 1009,3 hPa 0,0 l/m 10,9 km/h (2 Bft) W-SW 242 0 min 0 W/m 11,7 C 12,8 C 17,7 km/h (3 Bft)
07.09.2017 05:42 15,1 C 80 % 1009,3 hPa 0,0 l/m 8,0 km/h (2 Bft) W 275 0 min 0 W/m 11,7 C 14,2 C 19,3 km/h (3 Bft)
07.09.2017 05:45 15,1 C 80 % 1009,3 hPa 0,0 l/m 10,2 km/h (2 Bft) W 278 0 min 0 W/m 11,7 C 13,1 C 17,7 km/h (3 Bft)
07.09.2017 05:48 15,0 C 80 % 1009,3 hPa 0,0 l/m 7,0 km/h (2 Bft) W 281 0 min 0 W/m 11,6 C 14,7 C 17,7 km/h (3 Bft)
07.09.2017 05:51 15,0 C 81 % 1009,2 hPa 0,0 l/m 10,7 km/h (2 Bft) W 281 0 min 0 W/m 11,8 C 12,8 C 22,5 km/h (4 Bft)
07.09.2017 05:54 15,0 C 81 % 1009,2 hPa 0,0 l/m 8,8 km/h (2 Bft) W 259 0 min 0 W/m 11,8 C 13,7 C 19,3 km/h (3 Bft)
07.09.2017 05:57 14,9 C 81 % 1009,2 hPa 0,0 l/m 8,1 km/h (2 Bft) W 269 0 min 0 W/m 11,7 C 13,9 C 16,1 km/h (3 Bft)
07.09.2017 06:00 14,9 C 81 % 1009,2 hPa 0,0 l/m 9,1 km/h (2 Bft) W-NW 286 0 min 0 W/m 11,7 C 13,4 C 17,7 km/h (3 Bft)
07.09.2017 06:03 14,9 C 81 % 1009,2 hPa 0,0 l/m 8,0 km/h (2 Bft) W 264 0 min 0 W/m 11,7 C 14,0 C 17,7 km/h (3 Bft)
07.09.2017 06:06 14,9 C 81 % 1009,1 hPa 0,0 l/m 8,6 km/h (2 Bft) NW 311 0 min 0 W/m 11,7 C 13,7 C 20,9 km/h (4 Bft)
07.09.2017 06:09 14,9 C 81 % 1009,1 hPa 0,0 l/m 9,1 km/h (2 Bft) W 278 0 min 0 W/m 11,7 C 13,4 C 22,5 km/h (4 Bft)
07.09.2017 06:12 14,8 C 82 % 1009,1 hPa 0,0 l/m 4,9 km/h (1 Bft) W-SW 244 0 min 0 W/m 11,8 C 14,8 C 11,3 km/h (2 Bft)
07.09.2017 06:15 14,8 C 82 % 1009,2 hPa 0,0 l/m 8,0 km/h (2 Bft) W 279 0 min 0 W/m 11,8 C 13,9 C 20,9 km/h (4 Bft)
07.09.2017 06:18 14,8 C 82 % 1009,2 hPa 0,0 l/m 8,7 km/h (2 Bft) W-SW 250 0 min 0 W/m 11,8 C 13,5 C 16,1 km/h (3 Bft)
07.09.2017 06:21 14,7 C 82 % 1009,2 hPa 0,0 l/m 6,2 km/h (2 Bft) W 269 0 min 0 W/m 11,7 C 14,7 C 19,3 km/h (3 Bft)
07.09.2017 06:24 14,8 C 82 % 1009,2 hPa 0,0 l/m 8,2 km/h (2 Bft) W 265 0 min 0 W/m 11,8 C 13,8 C 17,7 km/h (3 Bft)
07.09.2017 06:27 14,8 C 82 % 1009,2 hPa 0,0 l/m 9,0 km/h (2 Bft) W-NW 287 0 min 0 W/m 11,8 C 13,4 C 19,3 km/h (3 Bft)
07.09.2017 06:30 14,8 C 82 % 1009,2 hPa 0,0 l/m 9,7 km/h (2 Bft) NW 304 0 min 0 W/m 11,8 C 13,0 C 22,5 km/h (4 Bft)
07.09.2017 06:33 14,8 C 81 % 1009,2 hPa 0,0 l/m 9,9 km/h (2 Bft) W-SW 252 0 min 0 W/m 11,6 C 12,9 C 20,9 km/h (4 Bft)
07.09.2017 06:36 14,9 C 81 % 1009,2 hPa 0,0 l/m 8,7 km/h (2 Bft) NW 319 0 min 0 W/m 11,7 C 13,6 C 20,9 km/h (4 Bft)
07.09.2017 06:39 14,9 C 81 % 1009,3 hPa 0,0 l/m 14,7 km/h (3 Bft) N-NW 341 0 min 0 W/m 11,7 C 11,2 C 29,0 km/h (5 Bft)
07.09.2017 06:42 15,1 C 83 % 1009,5 hPa 0,0 l/m 19,2 km/h (3 Bft) W-SW 247 0 min 0 W/m 12,2 C 10,1 C 27,4 km/h (5 Bft)
07.09.2017 06:45 15,1 C 83 % 1009,5 hPa 0,0 l/m 16,6 km/h (3 Bft) NW 319 0 min 0 W/m 12,2 C 10,8 C 29,0 km/h (5 Bft)
07.09.2017 06:48 14,9 C 83 % 1009,5 hPa 0,0 l/m 11,6 km/h (2 Bft) W-SW 254 0 min 0 W/m 12,0 C 12,3 C 20,9 km/h (4 Bft)
07.09.2017 06:51 14,8 C 83 % 1009,5 hPa 0,0 l/m 8,2 km/h (2 Bft) W-NW 298 0 min 0 W/m 11,9 C 13,8 C 14,5 km/h (3 Bft)
07.09.2017 06:54 14,7 C 84 % 1009,4 hPa 0,0 l/m 7,2 km/h (2 Bft) W 270 0 min 0 W/m 12,0 C 14,2 C 12,9 km/h (3 Bft)
07.09.2017 06:57 14,6 C 85 % 1009,4 hPa 0,0 l/m 7,4 km/h (2 Bft) W 270 0 min 0 W/m 12,1 C 14,0 C 12,9 km/h (3 Bft)
07.09.2017 07:00 14,5 C 85 % 1009,4 hPa 0,0 l/m 5,6 km/h (2 Bft) W 259 0 min 5 W/m 12,0 C 14,5 C 14,5 km/h (3 Bft)
07.09.2017 07:03 14,4 C 86 % 1009,4 hPa 0,0 l/m 7,6 km/h (2 Bft) W 275 0 min 7 W/m 12,1 C 13,7 C 16,1 km/h (3 Bft)
07.09.2017 07:06 14,4 C 86 % 1009,4 hPa 0,0 l/m 4,1 km/h (1 Bft) N-NW 327 0 min 7 W/m 12,1 C 14,4 C 8,0 km/h (2 Bft)
07.09.2017 07:09 14,3 C 86 % 1009,3 hPa 0,0 l/m 3,5 km/h (1 Bft) W 263 0 min 9 W/m 12,0 C 14,3 C 9,7 km/h (2 Bft)
07.09.2017 07:12 14,2 C 86 % 1009,3 hPa 0,0 l/m 3,6 km/h (1 Bft) W-NW 288 0 min 11 W/m 11,9 C 14,2 C 6,4 km/h (2 Bft)
07.09.2017 07:15 14,1 C 87 % 1009,4 hPa 0,0 l/m 4,5 km/h (1 Bft) W 280 0 min 11 W/m 12,0 C 14,1 C 11,3 km/h (2 Bft)
07.09.2017 07:18 14,1 C 87 % 1009,4 hPa 0,0 l/m 6,0 km/h (2 Bft) W 267 0 min 12 W/m 12,0 C 14,1 C 11,3 km/h (2 Bft)
07.09.2017 07:21 14,1 C 88 % 1009,4 hPa 0,0 l/m 6,1 km/h (2 Bft) W 268 0 min 14 W/m 12,1 C 14,1 C 11,3 km/h (2 Bft)
07.09.2017 07:24 14,1 C 88 % 1009,4 hPa 0,0 l/m 4,5 km/h (1 Bft) W 272 0 min 21 W/m 12,1 C 14,1 C 9,7 km/h (2 Bft)
07.09.2017 07:27 14,1 C 88 % 1009,3 hPa 0,0 l/m 4,1 km/h (1 Bft) W 272 0 min 23 W/m 12,1 C 14,1 C 9,7 km/h (2 Bft)
07.09.2017 07:30 14,2 C 88 % 1009,4 hPa 0,0 l/m 4,9 km/h (1 Bft) W 268 0 min 19 W/m 12,2 C 14,2 C 9,7 km/h (2 Bft)
07.09.2017 07:33 14,2 C 88 % 1009,4 hPa 0,0 l/m 7,2 km/h (2 Bft) W 278 0 min 16 W/m 12,2 C 13,7 C 17,7 km/h (3 Bft)
07.09.2017 07:36 14,3 C 88 % 1009,5 hPa 0,0 l/m 6,9 km/h (2 Bft) W-SW 255 0 min 16 W/m 12,3 C 14,0 C 11,3 km/h (2 Bft)
07.09.2017 07:39 14,3 C 89 % 1009,5 hPa 0,0 l/m 6,6 km/h (2 Bft) NW 306 0 min 18 W/m 12,5 C 14,2 C 16,1 km/h (3 Bft)
07.09.2017 07:42 14,3 C 88 % 1009,5 hPa 0,0 l/m 9,1 km/h (2 Bft) W 263 0 min 18 W/m 12,3 C 12,8 C 20,9 km/h (4 Bft)
07.09.2017 07:45 14,3 C 88 % 1009,5 hPa 0,0 l/m 11,0 km/h (2 Bft) W 273 0 min 19 W/m 12,3 C 11,9 C 20,9 km/h (4 Bft)
07.09.2017 07:48 14,4 C 88 % 1009,5 hPa 0,0 l/m 10,1 km/h (2 Bft) NW 311 0 min 21 W/m 12,4 C 12,4 C 20,9 km/h (4 Bft)
07.09.2017 07:51 14,5 C 88 % 1009,5 hPa 0,0 l/m 8,1 km/h (2 Bft) W-SW 254 0 min 21 W/m 12,5 C 13,5 C 20,9 km/h (4 Bft)
07.09.2017 07:54 14,6 C 87 % 1009,5 hPa 0,0 l/m 8,9 km/h (2 Bft) NW 320 0 min 23 W/m 12,5 C 13,2 C 22,5 km/h (4 Bft)
07.09.2017 07:57 14,6 C 87 % 1009,5 hPa 0,0 l/m 12,4 km/h (2 Bft) W 267 0 min 25 W/m 12,5 C 11,7 C 22,5 km/h (4 Bft)
07.09.2017 08:00 14,7 C 86 % 1009,5 hPa 0,0 l/m 11,9 km/h (2 Bft) W 279 0 min 25 W/m 12,4 C 12,0 C 22,5 km/h (4 Bft)
07.09.2017 08:03 14,7 C 86 % 1009,5 hPa 0,0 l/m 10,0 km/h (2 Bft) W-NW 286 0 min 25 W/m 12,4 C 12,8 C 19,3 km/h (3 Bft)
07.09.2017 08:06 14,8 C 85 % 1009,6 hPa 0,0 l/m 7,6 km/h (2 Bft) NW 306 0 min 28 W/m 12,3 C 14,1 C 19,3 km/h (3 Bft)
07.09.2017 08:09 14,8 C 85 % 1009,6 hPa 0,0 l/m 8,2 km/h (2 Bft) W 267 0 min 26 W/m 12,3 C 13,8 C 16,1 km/h (3 Bft)
07.09.2017 08:12 14,9 C 85 % 1009,6 hPa 0,0 l/m 9,0 km/h (2 Bft) W 277 0 min 25 W/m 12,4 C 13,5 C 20,9 km/h (4 Bft)
07.09.2017 08:15 14,9 C 85 % 1009,6 hPa 0,0 l/m 9,6 km/h (2 Bft) W-NW 290 0 min 25 W/m 12,4 C 13,2 C 16,1 km/h (3 Bft)
07.09.2017 08:18 15,0 C 86 % 1009,7 hPa 0,0 l/m 10,5 km/h (2 Bft) W-SW 248 0 min 28 W/m 12,7 C 12,9 C 16,1 km/h (3 Bft)
07.09.2017 08:21 15,0 C 85 % 1009,7 hPa 0,0 l/m 10,0 km/h (2 Bft) W-NW 282 0 min 47 W/m 12,5 C 13,1 C 19,3 km/h (3 Bft)
07.09.2017 08:24 15,1 C 85 % 1009,7 hPa 0,0 l/m 11,1 km/h (2 Bft) W-NW 298 0 min 33 W/m 12,6 C 12,8 C 19,3 km/h (3 Bft)
07.09.2017 08:27 15,1 C 85 % 1009,7 hPa 0,0 l/m 9,7 km/h (2 Bft) W 277 0 min 49 W/m 12,6 C 13,4 C 19,3 km/h (3 Bft)
07.09.2017 08:30 15,2 C 85 % 1009,7 hPa 0,0 l/m 10,0 km/h (2 Bft) W-NW 295 0 min 83 W/m 12,7 C 13,3 C 16,1 km/h (3 Bft)
07.09.2017 08:33 15,3 C 85 % 1009,7 hPa 0,0 l/m 7,1 km/h (2 Bft) W 276 0 min 60 W/m 12,8 C 14,9 C 16,1 km/h (3 Bft)
07.09.2017 08:36 15,3 C 85 % 1009,7 hPa 0,0 l/m 8,7 km/h (2 Bft) SW 229 0 min 74 W/m 12,8 C 14,1 C 14,5 km/h (3 Bft)
07.09.2017 08:39 15,4 C 85 % 1009,7 hPa 0,0 l/m 10,6 km/h (2 Bft) W-SW 245 0 min 72 W/m 12,9 C 13,3 C 22,5 km/h (4 Bft)
07.09.2017 08:42 15,6 C 85 % 1009,7 hPa 0,0 l/m 10,2 km/h (2 Bft) W-NW 301 0 min 72 W/m 13,1 C 13,7 C 17,7 km/h (3 Bft)
07.09.2017 08:45 15,6 C 84 % 1009,7 hPa 0,0 l/m 9,9 km/h (2 Bft) W 276 0 min 44 W/m 12,9 C 13,8 C 19,3 km/h (3 Bft)
07.09.2017 08:48 15,7 C 84 % 1009,7 hPa 0,0 l/m 8,3 km/h (2 Bft) W-NW 300 0 min 40 W/m 13,0 C 14,7 C 17,7 km/h (3 Bft)
07.09.2017 08:51 15,7 C 83 % 1009,7 hPa 0,0 l/m 10,2 km/h (2 Bft) W-SW 245 0 min 49 W/m 12,8 C 13,8 C 19,3 km/h (3 Bft)
07.09.2017 08:54 15,7 C 84 % 1009,7 hPa 0,0 l/m 7,9 km/h (2 Bft) W 263 0 min 60 W/m 13,0 C 14,9 C 17,7 km/h (3 Bft)
07.09.2017 08:57 15,7 C 84 % 1009,7 hPa 0,0 l/m 10,4 km/h (2 Bft) W 268 0 min 84 W/m 13,0 C 13,7 C 16,1 km/h (3 Bft)
07.09.2017 09:00 15,8 C 84 % 1009,7 hPa 0,0 l/m 11,4 km/h (2 Bft) W 260 0 min 93 W/m 13,1 C 13,4 C 20,9 km/h (4 Bft)
07.09.2017 09:03 16,0 C 83 % 1009,8 hPa 0,0 l/m 10,6 km/h (2 Bft) W 274 0 min 167 W/m 13,1 C 14,0 C 19,3 km/h (3 Bft)
07.09.2017 09:06 16,2 C 83 % 1009,8 hPa 0,0 l/m 11,1 km/h (2 Bft) W-NW 290 0 min 160 W/m 13,3 C 14,0 C 20,9 km/h (4 Bft)
07.09.2017 09:09 16,3 C 82 % 1009,8 hPa 0,0 l/m 9,5 km/h (2 Bft) W 273 0 min 151 W/m 13,2 C 14,8 C 20,9 km/h (4 Bft)
07.09.2017 09:12 16,4 C 81 % 1009,8 hPa 0,0 l/m 12,0 km/h (2 Bft) W-NW 282 0 min 134 W/m 13,1 C 13,9 C 20,9 km/h (4 Bft)
07.09.2017 09:15 16,5 C 80 % 1009,8 hPa 0,0 l/m 10,5 km/h (2 Bft) W-SW 256 0 min 134 W/m 13,0 C 14,6 C 27,4 km/h (5 Bft)
07.09.2017 09:18 16,6 C 80 % 1009,8 hPa 0,0 l/m 9,2 km/h (2 Bft) W-SW 248 0 min 148 W/m 13,1 C 15,2 C 16,1 km/h (3 Bft)
07.09.2017 09:21 16,6 C 81 % 1009,8 hPa 0,0 l/m 12,0 km/h (2 Bft) W 269 0 min 149 W/m 13,3 C 14,1 C 20,9 km/h (4 Bft)
07.09.2017 09:24 16,6 C 80 % 1009,8 hPa 0,0 l/m 13,3 km/h (3 Bft) W-NW 284 0 min 160 W/m 13,1 C 13,7 C 20,9 km/h (4 Bft)
07.09.2017 09:27 16,6 C 79 % 1009,9 hPa 0,0 l/m 11,2 km/h (2 Bft) N-NW 334 0 min 160 W/m 12,9 C 14,4 C 19,3 km/h (3 Bft)
07.09.2017 09:30 16,7 C 80 % 1009,9 hPa 0,0 l/m 10,9 km/h (2 Bft) W-NW 284 0 min 172 W/m 13,2 C 14,6 C 20,9 km/h (4 Bft)
07.09.2017 09:33 16,7 C 79 % 1009,9 hPa 0,0 l/m 12,4 km/h (2 Bft) W 273 0 min 195 W/m 13,0 C 14,1 C 24,1 km/h (4 Bft)
07.09.2017 09:36 16,7 C 80 % 1009,8 hPa 0,0 l/m 8,4 km/h (2 Bft) W 279 0 min 211 W/m 13,2 C 15,7 C 20,9 km/h (4 Bft)
07.09.2017 09:39 16,8 C 79 % 1009,9 hPa 0,0 l/m 9,3 km/h (2 Bft) W 267 0 min 213 W/m 13,1 C 15,4 C 16,1 km/h (3 Bft)
07.09.2017 09:42 16,9 C 79 % 1009,9 hPa 0,0 l/m 10,7 km/h (2 Bft) W 276 0 min 221 W/m 13,2 C 14,9 C 25,7 km/h (4 Bft)
07.09.2017 09:45 17,1 C 78 % 1009,9 hPa 0,0 l/m 11,7 km/h (2 Bft) W-SW 240 3 min 276 W/m 13,2 C 14,8 C 22,5 km/h (4 Bft)
07.09.2017 09:48 17,2 C 77 % 1009,9 hPa 0,0 l/m 12,6 km/h (3 Bft) W-NW 303 3 min 265 W/m 13,1 C 14,6 C 20,9 km/h (4 Bft)
07.09.2017 09:51 17,2 C 77 % 1009,9 hPa 0,0 l/m 12,6 km/h (3 Bft) W 274 3 min 489 W/m 13,1 C 14,6 C 20,9 km/h (4 Bft)
07.09.2017 09:54 17,3 C 76 % 1009,9 hPa 0,0 l/m 11,1 km/h (2 Bft) W 266 3 min 323 W/m 13,0 C 15,2 C 22,5 km/h (4 Bft)
07.09.2017 09:57 17,4 C 76 % 1009,9 hPa 0,0 l/m 8,7 km/h (2 Bft) NW 323 3 min 571 W/m 13,1 C 16,3 C 17,7 km/h (3 Bft)
07.09.2017 10:00 17,6 C 77 % 1009,9 hPa 0,0 l/m 6,5 km/h (2 Bft) W 277 3 min 276 W/m 13,5 C 17,6 C 12,9 km/h (3 Bft)
07.09.2017 10:03 17,7 C 75 % 1009,8 hPa 0,0 l/m 11,7 km/h (2 Bft) SW 224 3 min 276 W/m 13,2 C 15,5 C 22,5 km/h (4 Bft)
07.09.2017 10:06 17,7 C 75 % 1009,9 hPa 0,0 l/m 12,3 km/h (2 Bft) W 275 3 min 301 W/m 13,2 C 15,3 C 22,5 km/h (4 Bft)
07.09.2017 10:09 17,7 C 76 % 1010,0 hPa 0,0 l/m 7,1 km/h (2 Bft) W 279 3 min 297 W/m 13,4 C 17,4 C 14,5 km/h (3 Bft)
07.09.2017 10:12 17,7 C 75 % 1010,0 hPa 0,0 l/m 6,9 km/h (2 Bft) W-SW 257 3 min 431 W/m 13,2 C 17,5 C 17,7 km/h (3 Bft)
07.09.2017 10:15 17,7 C 75 % 1010,1 hPa 0,0 l/m 9,7 km/h (2 Bft) W 280 3 min 276 W/m 13,2 C 16,2 C 19,3 km/h (3 Bft)
07.09.2017 10:18 17,7 C 74 % 1010,1 hPa 0,0 l/m 9,5 km/h (2 Bft) W-SW 254 3 min 392 W/m 13,0 C 16,3 C 17,7 km/h (3 Bft)
07.09.2017 10:21 17,8 C 74 % 1010,0 hPa 0,0 l/m 9,5 km/h (2 Bft) W 279 3 min 457 W/m 13,1 C 16,4 C 17,7 km/h (3 Bft)
07.09.2017 10:24 17,8 C 74 % 1010,1 hPa 0,0 l/m 9,7 km/h (2 Bft) SW 229 0 min 251 W/m 13,1 C 16,3 C 20,9 km/h (4 Bft)
07.09.2017 10:27 17,8 C 75 % 1010,1 hPa 0,0 l/m 8,8 km/h (2 Bft) W 271 0 min 244 W/m 13,3 C 16,7 C 20,9 km/h (4 Bft)
07.09.2017 10:30 17,7 C 74 % 1010,1 hPa 0,0 l/m 12,2 km/h (2 Bft) W 263 0 min 179 W/m 13,0 C 15,3 C 25,7 km/h (4 Bft)
07.09.2017 10:33 17,5 C 75 % 1010,0 hPa 0,0 l/m 10,9 km/h (2 Bft) SW 232 0 min 181 W/m 13,0 C 15,5 C 17,7 km/h (3 Bft)
07.09.2017 10:36 17,4 C 76 % 1010,0 hPa 0,0 l/m 12,4 km/h (2 Bft) W 261 3 min 496 W/m 13,1 C 14,9 C 22,5 km/h (4 Bft)
07.09.2017 10:39 17,7 C 76 % 1010,1 hPa 0,0 l/m 11,8 km/h (2 Bft) W 273 3 min 550 W/m 13,4 C 15,4 C 20,9 km/h (4 Bft)
07.09.2017 10:42 18,1 C 74 % 1010,1 hPa 0,0 l/m 8,7 km/h (2 Bft) W 265 3 min 643 W/m 13,4 C 17,1 C 19,3 km/h (3 Bft)
07.09.2017 10:45 18,1 C 73 % 1010,1 hPa 0,0 l/m 12,7 km/h (3 Bft) W 264 3 min 403 W/m 13,2 C 15,6 C 19,3 km/h (3 Bft)
07.09.2017 10:48 18,2 C 73 % 1010,1 hPa 0,0 l/m 9,1 km/h (2 Bft) W 262 3 min 703 W/m 13,3 C 17,0 C 22,5 km/h (4 Bft)
07.09.2017 10:51 18,4 C 73 % 1010,2 hPa 0,0 l/m 6,2 km/h (2 Bft) W 265 3 min 703 W/m 13,5 C 18,4 C 16,1 km/h (3 Bft)
07.09.2017 10:54 18,3 C 73 % 1010,1 hPa 0,0 l/m 9,3 km/h (2 Bft) W-NW 283 3 min 304 W/m 13,4 C 17,0 C 17,7 km/h (3 Bft)
07.09.2017 10:57 18,2 C 72 % 1010,2 hPa 0,0 l/m 12,0 km/h (2 Bft) W 270 3 min 366 W/m 13,1 C 16,0 C 19,3 km/h (3 Bft)
07.09.2017 11:00 18,1 C 72 % 1010,1 hPa 0,0 l/m 10,1 km/h (2 Bft) W 275 0 min 299 W/m 13,0 C 16,5 C 20,9 km/h (4 Bft)
07.09.2017 11:03 18,2 C 72 % 1010,1 hPa 0,0 l/m 9,3 km/h (2 Bft) SW 231 3 min 534 W/m 13,1 C 16,9 C 19,3 km/h (3 Bft)
07.09.2017 11:06 18,1 C 74 % 1010,2 hPa 0,0 l/m 10,0 km/h (2 Bft) W 270 0 min 221 W/m 13,4 C 16,5 C 19,3 km/h (3 Bft)
07.09.2017 11:09 17,7 C 78 % 1010,2 hPa 0,0 l/m 13,9 km/h (3 Bft) SW 227 0 min 100 W/m 13,8 C 14,8 C 25,7 km/h (4 Bft)
07.09.2017 11:12 17,3 C 80 % 1010,1 hPa 0,0 l/m 9,6 km/h (2 Bft) W-SW 249 0 min 97 W/m 13,8 C 15,8 C 20,9 km/h (4 Bft)
07.09.2017 11:15 16,9 C 82 % 1010,2 hPa 0,0 l/m 13,3 km/h (3 Bft) S-SW 207 0 min 181 W/m 13,8 C 14,0 C 27,4 km/h (5 Bft)
07.09.2017 11:18 16,6 C 83 % 1010,2 hPa 0,0 l/m 15,6 km/h (3 Bft) S-SW 202 0 min 134 W/m 13,7 C 13,0 C 24,1 km/h (4 Bft)
07.09.2017 11:21 16,4 C 84 % 1010,1 hPa 0,0 l/m 13,6 km/h (3 Bft) W-SW 237 0 min 74 W/m 13,7 C 13,3 C 24,1 km/h (4 Bft)
07.09.2017 11:24 16,3 C 84 % 1010,2 hPa 0,0 l/m 12,4 km/h (2 Bft) W-SW 238 0 min 60 W/m 13,6 C 13,6 C 22,5 km/h (4 Bft)
07.09.2017 11:27 16,2 C 85 % 1010,2 hPa 0,0 l/m 11,5 km/h (2 Bft) SW 234 0 min 60 W/m 13,7 C 13,8 C 22,5 km/h (4 Bft)
07.09.2017 11:30 16,1 C 86 % 1010,1 hPa 0,0 l/m 10,5 km/h (2 Bft) S 179 0 min 74 W/m 13,8 C 14,1 C 19,3 km/h (3 Bft)
07.09.2017 11:33 16,1 C 86 % 1010,2 hPa 0,0 l/m 9,5 km/h (2 Bft) S-SW 211 0 min 95 W/m 13,8 C 14,6 C 17,7 km/h (3 Bft)
07.09.2017 11:36 15,9 C 87 % 1010,2 hPa 0,0 l/m 13,1 km/h (3 Bft) SW 225 0 min 90 W/m 13,7 C 12,9 C 20,9 km/h (4 Bft)
07.09.2017 11:39 15,8 C 87 % 1010,2 hPa 0,0 l/m 13,6 km/h (3 Bft) W 259 0 min 107 W/m 13,6 C 12,6 C 22,5 km/h (4 Bft)
07.09.2017 11:42 15,7 C 87 % 1010,2 hPa 0,0 l/m 10,3 km/h (2 Bft) S-SW 211 0 min 105 W/m 13,5 C 13,8 C 20,9 km/h (4 Bft)
07.09.2017 11:45 15,6 C 88 % 1010,1 hPa 0,0 l/m 13,4 km/h (3 Bft) W-SW 252 0 min 105 W/m 13,6 C 12,5 C 22,5 km/h (4 Bft)
07.09.2017 11:48 15,4 C 88 % 1010,0 hPa 0,0 l/m 13,3 km/h (3 Bft) S-SW 205 0 min 120 W/m 13,4 C 12,3 C 17,7 km/h (3 Bft)
07.09.2017 11:51 15,3 C 88 % 1010,1 hPa 0,0 l/m 10,8 km/h (2 Bft) SW 234 0 min 114 W/m 13,3 C 13,1 C 19,3 km/h (3 Bft)
07.09.2017 11:54 15,2 C 88 % 1010,1 hPa 0,0 l/m 14,4 km/h (3 Bft) W-SW 254 0 min 114 W/m 13,2 C 11,6 C 19,3 km/h (3 Bft)
07.09.2017 11:57 15,2 C 88 % 1010,1 hPa 0,0 l/m 11,8 km/h (2 Bft) SW 231 0 min 132 W/m 13,2 C 12,6 C 20,9 km/h (4 Bft)
07.09.2017 12:00 15,3 C 88 % 1010,2 hPa 0,0 l/m 11,6 km/h (2 Bft) SW 227 0 min 151 W/m 13,3 C 12,8 C 17,7 km/h (3 Bft)
07.09.2017 12:03 15,3 C 88 % 1010,2 hPa 0,0 l/m 9,9 km/h (2 Bft) S-SW 210 0 min 183 W/m 13,3 C 13,5 C 16,1 km/h (3 Bft)
07.09.2017 12:06 15,3 C 86 % 1010,1 hPa 0,0 l/m 11,1 km/h (2 Bft) SW 227 0 min 218 W/m 13,0 C 13,0 C 17,7 km/h (3 Bft)
07.09.2017 12:09 15,4 C 86 % 1010,1 hPa 0,0 l/m 9,6 km/h (2 Bft) SW 234 3 min 373 W/m 13,1 C 13,7 C 17,7 km/h (3 Bft)
07.09.2017 12:12 15,6 C 87 % 1010,0 hPa 0,0 l/m 8,9 km/h (2 Bft) SW 228 0 min 323 W/m 13,4 C 14,3 C 16,1 km/h (3 Bft)
07.09.2017 12:15 15,8 C 87 % 1010,0 hPa 0,0 l/m 6,9 km/h (2 Bft) SW 221 0 min 301 W/m 13,6 C 15,5 C 12,9 km/h (3 Bft)
07.09.2017 12:18 16,1 C 87 % 1010,0 hPa 0,0 l/m 7,8 km/h (2 Bft) SW 236 0 min 288 W/m 13,9 C 15,4 C 14,5 km/h (3 Bft)
07.09.2017 12:21 16,2 C 87 % 1010,0 hPa 0,0 l/m 6,4 km/h (2 Bft) SW 232 0 min 281 W/m 14,0 C 16,2 C 16,1 km/h (3 Bft)
07.09.2017 12:24 16,3 C 86 % 1010,0 hPa 0,0 l/m 7,0 km/h (2 Bft) W-SW 240 0 min 271 W/m 14,0 C 16,0 C 9,7 km/h (2 Bft)
07.09.2017 12:27 16,4 C 86 % 1010,0 hPa 0,0 l/m 7,2 km/h (2 Bft) W-SW 239 0 min 272 W/m 14,1 C 16,0 C 12,9 km/h (3 Bft)
07.09.2017 12:30 16,4 C 86 % 1009,9 hPa 0,0 l/m 7,0 km/h (2 Bft) SW 227 0 min 278 W/m 14,1 C 16,1 C 11,3 km/h (2 Bft)
07.09.2017 12:33 16,4 C 86 % 1009,9 hPa 0,0 l/m 8,1 km/h (2 Bft) SW 215 0 min 341 W/m 14,1 C 15,5 C 12,9 km/h (3 Bft)
07.09.2017 12:36 16,6 C 86 % 1009,9 hPa 0,0 l/m 9,7 km/h (2 Bft) W 276 3 min 406 W/m 14,2 C 15,0 C 19,3 km/h (3 Bft)
07.09.2017 12:39 16,9 C 84 % 1009,9 hPa 0,0 l/m 9,4 km/h (2 Bft) W 265 3 min 473 W/m 14,2 C 15,5 C 17,7 km/h (3 Bft)
07.09.2017 12:42 17,4 C 82 % 1009,9 hPa 0,0 l/m 10,9 km/h (2 Bft) W-NW 283 3 min 492 W/m 14,3 C 15,4 C 22,5 km/h (4 Bft)
07.09.2017 12:45 17,8 C 81 % 1009,9 hPa 0,0 l/m 8,6 km/h (2 Bft) W-SW 252 3 min 427 W/m 14,5 C 16,8 C 17,7 km/h (3 Bft)
07.09.2017 12:48 18,2 C 79 % 1009,9 hPa 0,0 l/m 9,8 km/h (2 Bft) W 275 3 min 512 W/m 14,5 C 16,7 C 16,1 km/h (3 Bft)
07.09.2017 12:51 18,3 C 78 % 1009,9 hPa 0,0 l/m 11,1 km/h (2 Bft) W-SW 245 3 min 642 W/m 14,4 C 16,4 C 16,1 km/h (3 Bft)
07.09.2017 12:54 18,3 C 76 % 1009,9 hPa 0,0 l/m 13,4 km/h (3 Bft) N 355 0 min 297 W/m 14,0 C 15,6 C 22,5 km/h (4 Bft)
07.09.2017 12:57 18,2 C 76 % 1009,9 hPa 0,0 l/m 10,5 km/h (2 Bft) W-SW 249 3 min 747 W/m 13,9 C 16,5 C 19,3 km/h (3 Bft)
07.09.2017 13:00 18,4 C 76 % 1010,0 hPa 0,0 l/m 10,5 km/h (2 Bft) W-NW 284 3 min 654 W/m 14,1 C 16,7 C 19,3 km/h (3 Bft)
07.09.2017 13:03 18,7 C 75 % 1009,9 hPa 0,0 l/m 10,9 km/h (2 Bft) W 273 3 min 705 W/m 14,2 C 16,9 C 19,3 km/h (3 Bft)
07.09.2017 13:06 18,8 C 76 % 1009,9 hPa 0,0 l/m 8,4 km/h (2 Bft) W-SW 249 3 min 733 W/m 14,5 C 17,9 C 16,1 km/h (3 Bft)
07.09.2017 13:09 18,6 C 75 % 1009,9 hPa 0,0 l/m 11,4 km/h (2 Bft) W 271 0 min 230 W/m 14,1 C 16,6 C 19,3 km/h (3 Bft)
07.09.2017 13:12 18,3 C 75 % 1009,8 hPa 0,0 l/m 8,9 km/h (2 Bft) W 266 0 min 218 W/m 13,8 C 17,2 C 14,5 km/h (3 Bft)
07.09.2017 13:15 18,1 C 76 % 1009,9 hPa 0,0 l/m 9,8 km/h (2 Bft) W 275 0 min 195 W/m 13,8 C 16,6 C 20,9 km/h (4 Bft)
07.09.2017 13:18 17,9 C 77 % 1009,8 hPa 0,0 l/m 7,3 km/h (2 Bft) W-SW 248 0 min 172 W/m 13,8 C 17,5 C 12,9 km/h (3 Bft)
07.09.2017 13:21 17,7 C 77 % 1009,8 hPa 0,0 l/m 9,6 km/h (2 Bft) W-NW 286 0 min 148 W/m 13,6 C 16,3 C 16,1 km/h (3 Bft)
07.09.2017 13:24 17,6 C 77 % 1009,8 hPa 0,0 l/m 8,4 km/h (2 Bft) SW 233 0 min 163 W/m 13,5 C 16,7 C 14,5 km/h (3 Bft)
07.09.2017 13:27 17,5 C 79 % 1009,8 hPa 0,0 l/m 5,7 km/h (2 Bft) NW 319 0 min 128 W/m 13,8 C 17,5 C 11,3 km/h (2 Bft)
07.09.2017 13:30 17,5 C 79 % 1009,8 hPa 0,0 l/m 7,3 km/h (2 Bft) W 267 0 min 186 W/m 13,8 C 17,1 C 14,5 km/h (3 Bft)
07.09.2017 13:33 17,8 C 78 % 1009,8 hPa 0,0 l/m 11,2 km/h (2 Bft) W 263 0 min 232 W/m 13,9 C 15,8 C 19,3 km/h (3 Bft)
07.09.2017 13:36 18,0 C 77 % 1009,7 hPa 0,0 l/m 9,2 km/h (2 Bft) W-NW 284 0 min 185 W/m 13,9 C 16,7 C 14,5 km/h (3 Bft)
07.09.2017 13:39 18,2 C 78 % 1009,8 hPa 0,0 l/m 11,6 km/h (2 Bft) W 275 3 min 643 W/m 14,3 C 16,1 C 19,3 km/h (3 Bft)
07.09.2017 13:42 18,4 C 77 % 1009,8 hPa 0,0 l/m 11,0 km/h (2 Bft) W 261 3 min 410 W/m 14,3 C 16,5 C 19,3 km/h (3 Bft)
07.09.2017 13:45 18,5 C 73 % 1009,8 hPa 0,0 l/m 12,8 km/h (3 Bft) W 265 3 min 446 W/m 13,6 C 16,1 C 22,5 km/h (4 Bft)
07.09.2017 13:48 18,4 C 72 % 1009,7 hPa 0,0 l/m 12,7 km/h (3 Bft) W 278 0 min 265 W/m 13,3 C 16,0 C 20,9 km/h (4 Bft)
07.09.2017 13:51 18,4 C 74 % 1009,8 hPa 0,0 l/m 8,5 km/h (2 Bft) W-SW 257 0 min 281 W/m 13,7 C 17,5 C 16,1 km/h (3 Bft)
07.09.2017 13:54 18,3 C 74 % 1009,8 hPa 0,0 l/m 8,8 km/h (2 Bft) W-SW 248 0 min 258 W/m 13,6 C 17,2 C 19,3 km/h (3 Bft)
07.09.2017 13:57 18,3 C 73 % 1009,8 hPa 0,0 l/m 13,1 km/h (3 Bft) W-NW 284 0 min 299 W/m 13,4 C 15,7 C 22,5 km/h (4 Bft)
07.09.2017 14:00 18,2 C 74 % 1009,8 hPa 0,0 l/m 10,8 km/h (2 Bft) W-SW 241 0 min 323 W/m 13,5 C 16,4 C 19,3 km/h (3 Bft)
07.09.2017 14:03 18,3 C 73 % 1009,8 hPa 0,0 l/m 11,6 km/h (2 Bft) W-NW 283 3 min 668 W/m 13,4 C 16,2 C 19,3 km/h (3 Bft)
07.09.2017 14:06 18,6 C 73 % 1009,8 hPa 0,0 l/m 7,4 km/h (2 Bft) SW 229 3 min 517 W/m 13,7 C 18,1 C 19,3 km/h (3 Bft)
07.09.2017 14:09 19,1 C 72 % 1009,8 hPa 0,0 l/m 10,9 km/h (2 Bft) W 262 3 min 686 W/m 13,9 C 17,3 C 20,9 km/h (4 Bft)
07.09.2017 14:12 19,3 C 70 % 1009,9 hPa 0,0 l/m 14,7 km/h (3 Bft) W 263 3 min 635 W/m 13,7 C 16,5 C 24,1 km/h (4 Bft)
07.09.2017 14:15 19,6 C 69 % 1009,9 hPa 0,0 l/m 13,5 km/h (3 Bft) W 277 3 min 671 W/m 13,8 C 17,1 C 24,1 km/h (4 Bft)
07.09.2017 14:18 19,7 C 67 % 1009,9 hPa 0,0 l/m 13,2 km/h (3 Bft) SW 223 3 min 661 W/m 13,4 C 17,3 C 24,1 km/h (4 Bft)
07.09.2017 14:21 19,7 C 66 % 1009,9 hPa 0,0 l/m 11,0 km/h (2 Bft) W-NW 300 3 min 622 W/m 13,2 C 18,0 C 30,6 km/h (5 Bft)
07.09.2017 14:24 19,2 C 66 % 1009,9 hPa 0,0 l/m 11,4 km/h (2 Bft) W 271 0 min 156 W/m 12,7 C 17,3 C 25,7 km/h (4 Bft)
07.09.2017 14:27 18,8 C 70 % 1009,9 hPa 0,0 l/m 7,3 km/h (2 Bft) NW 304 0 min 160 W/m 13,2 C 18,4 C 17,7 km/h (3 Bft)
07.09.2017 14:30 18,5 C 72 % 1009,9 hPa 0,0 l/m 13,7 km/h (3 Bft) W 277 0 min 174 W/m 13,4 C 15,8 C 27,4 km/h (5 Bft)
07.09.2017 14:33 18,3 C 74 % 1009,9 hPa 0,0 l/m 10,3 km/h (2 Bft) SW 232 0 min 197 W/m 13,6 C 16,7 C 17,7 km/h (3 Bft)
07.09.2017 14:36 18,2 C 75 % 1009,9 hPa 0,0 l/m 11,7 km/h (2 Bft) NW 315 0 min 237 W/m 13,7 C 16,1 C 25,7 km/h (4 Bft)
07.09.2017 14:39 18,2 C 76 % 1009,9 hPa 0,0 l/m 12,7 km/h (3 Bft) NW 315 0 min 169 W/m 13,9 C 15,7 C 24,1 km/h (4 Bft)
07.09.2017 14:42 17,9 C 75 % 1010,0 hPa 0,0 l/m 12,2 km/h (2 Bft) W 263 0 min 158 W/m 13,4 C 15,5 C 24,1 km/h (4 Bft)
07.09.2017 14:45 17,6 C 76 % 1010,0 hPa 0,0 l/m 11,9 km/h (2 Bft) W-NW 298 0 min 171 W/m 13,3 C 15,3 C 25,7 km/h (4 Bft)
07.09.2017 14:48 17,4 C 77 % 1009,9 hPa 0,0 l/m 8,7 km/h (2 Bft) W-SW 255 0 min 176 W/m 13,3 C 16,3 C 17,7 km/h (3 Bft)
07.09.2017 14:51 17,2 C 78 % 1010,0 hPa 0,0 l/m 7,0 km/h (2 Bft) W 278 0 min 200 W/m 13,3 C 16,9 C 12,9 km/h (3 Bft)
07.09.2017 14:54 17,2 C 78 % 1009,9 hPa 0,0 l/m 5,6 km/h (2 Bft) W 269 0 min 218 W/m 13,3 C 17,2 C 12,9 km/h (3 Bft)
07.09.2017 14:57 17,3 C 77 % 1009,9 hPa 0,0 l/m 8,1 km/h (2 Bft) W 267 0 min 221 W/m 13,2 C 16,5 C 12,9 km/h (3 Bft)
07.09.2017 15:00 17,4 C 77 % 1009,9 hPa 0,0 l/m 10,5 km/h (2 Bft) W 275 0 min 221 W/m 13,3 C 15,6 C 17,7 km/h (3 Bft)
07.09.2017 15:03 17,4 C 76 % 1009,9 hPa 0,0 l/m 10,8 km/h (2 Bft) W 271 0 min 229 W/m 13,1 C 15,5 C 16,1 km/h (3 Bft)
07.09.2017 15:06 17,4 C 76 % 1010,0 hPa 0,0 l/m 13,5 km/h (3 Bft) W-NW 286 0 min 229 W/m 13,1 C 14,5 C 20,9 km/h (4 Bft)
07.09.2017 15:09 17,3 C 76 % 1010,0 hPa 0,0 l/m 10,0 km/h (2 Bft) W 271 0 min 232 W/m 13,0 C 15,7 C 19,3 km/h (3 Bft)
07.09.2017 15:12 17,4 C 77 % 1010,0 hPa 0,0 l/m 8,9 km/h (2 Bft) SW 220 0 min 244 W/m 13,3 C 16,2 C 19,3 km/h (3 Bft)
07.09.2017 15:15 17,4 C 78 % 1009,9 hPa 0,0 l/m 9,8 km/h (2 Bft) W 262 0 min 276 W/m 13,5 C 15,8 C 19,3 km/h (3 Bft)
07.09.2017 15:18 17,6 C 79 % 1009,9 hPa 0,0 l/m 5,7 km/h (2 Bft) W-NW 288 3 min 341 W/m 13,9 C 17,6 C 12,9 km/h (3 Bft)
07.09.2017 15:21 17,8 C 77 % 1009,8 hPa 0,0 l/m 7,1 km/h (2 Bft) W 269 3 min 394 W/m 13,7 C 17,5 C 17,7 km/h (3 Bft)
07.09.2017 15:24 18,1 C 76 % 1009,8 hPa 0,0 l/m 8,8 km/h (2 Bft) W 267 3 min 366 W/m 13,8 C 17,0 C 24,1 km/h (4 Bft)
07.09.2017 15:27 18,2 C 72 % 1009,8 hPa 0,0 l/m 10,9 km/h (2 Bft) W-NW 286 3 min 329 W/m 13,1 C 16,3 C 24,1 km/h (4 Bft)
07.09.2017 15:30 18,2 C 72 % 1009,9 hPa 0,0 l/m 13,2 km/h (3 Bft) W 274 0 min 311 W/m 13,1 C 15,6 C 19,3 km/h (3 Bft)
07.09.2017 15:33 18,1 C 70 % 1009,9 hPa 0,0 l/m 12,5 km/h (2 Bft) W 273 3 min 320 W/m 12,5 C 15,7 C 19,3 km/h (3 Bft)
07.09.2017 15:36 18,0 C 69 % 1009,8 hPa 0,0 l/m 13,2 km/h (3 Bft) W 261 3 min 376 W/m 12,2 C 15,3 C 20,9 km/h (4 Bft)
07.09.2017 15:39 18,1 C 69 % 1009,8 hPa 0,0 l/m 10,4 km/h (2 Bft) W-NW 283 3 min 346 W/m 12,3 C 16,4 C 20,9 km/h (4 Bft)
07.09.2017 15:42 18,3 C 71 % 1009,8 hPa 0,0 l/m 14,5 km/h (3 Bft) W-NW 300 3 min 330 W/m 12,9 C 15,3 C 22,5 km/h (4 Bft)
07.09.2017 15:45 18,3 C 73 % 1009,8 hPa 0,0 l/m 11,3 km/h (2 Bft) W 260 3 min 341 W/m 13,4 C 16,3 C 19,3 km/h (3 Bft)
07.09.2017 15:48 18,2 C 71 % 1009,8 hPa 0,0 l/m 12,2 km/h (2 Bft) W-NW 289 0 min 288 W/m 12,9 C 15,9 C 24,1 km/h (4 Bft)
07.09.2017 15:51 18,0 C 73 % 1009,7 hPa 0,0 l/m 12,2 km/h (2 Bft) W 261 0 min 258 W/m 13,1 C 15,7 C 24,1 km/h (4 Bft)
07.09.2017 15:54 17,8 C 74 % 1009,7 hPa 0,0 l/m 11,9 km/h (2 Bft) W-NW 282 0 min 269 W/m 13,1 C 15,5 C 22,5 km/h (4 Bft)
07.09.2017 15:57 17,8 C 74 % 1009,8 hPa 0,0 l/m 12,8 km/h (3 Bft) W-NW 287 0 min 265 W/m 13,1 C 15,2 C 24,1 km/h (4 Bft)
07.09.2017 16:00 17,8 C 75 % 1009,8 hPa 0,0 l/m 11,1 km/h (2 Bft) W-NW 283 0 min 236 W/m 13,3 C 15,8 C 19,3 km/h (3 Bft)
07.09.2017 16:03 17,8 C 75 % 1009,7 hPa 0,0 l/m 12,2 km/h (2 Bft) NW 307 0 min 234 W/m 13,3 C 15,4 C 22,5 km/h (4 Bft)
07.09.2017 16:06 17,7 C 74 % 1009,7 hPa 0,0 l/m 8,5 km/h (2 Bft) W 267 0 min 220 W/m 13,0 C 16,7 C 16,1 km/h (3 Bft)
07.09.2017 16:09 17,7 C 74 % 1009,8 hPa 0,0 l/m 7,9 km/h (2 Bft) W-SW 251 0 min 192 W/m 13,0 C 17,0 C 14,5 km/h (3 Bft)
07.09.2017 16:12 17,6 C 74 % 1009,8 hPa 0,0 l/m 10,8 km/h (2 Bft) W-NW 296 0 min 185 W/m 12,9 C 15,7 C 17,7 km/h (3 Bft)
07.09.2017 16:15 17,4 C 75 % 1009,8 hPa 0,0 l/m 13,6 km/h (3 Bft) W 262 0 min 183 W/m 12,9 C 14,5 C 22,5 km/h (4 Bft)
07.09.2017 16:18 17,4 C 74 % 1009,8 hPa 0,0 l/m 7,8 km/h (2 Bft) W-NW 285 0 min 200 W/m 12,7 C 16,7 C 16,1 km/h (3 Bft)
07.09.2017 16:21 17,4 C 74 % 1009,8 hPa 0,0 l/m 9,4 km/h (2 Bft) W 265 0 min 195 W/m 12,7 C 16,0 C 24,1 km/h (4 Bft)
07.09.2017 16:24 17,5 C 73 % 1009,9 hPa 0,0 l/m 10,2 km/h (2 Bft) W-SW 254 0 min 186 W/m 12,6 C 15,8 C 17,7 km/h (3 Bft)
07.09.2017 16:27 17,4 C 72 % 1009,8 hPa 0,0 l/m 13,9 km/h (3 Bft) W 275 0 min 204 W/m 12,3 C 14,4 C 20,9 km/h (4 Bft)
07.09.2017 16:30 17,4 C 72 % 1009,8 hPa 0,0 l/m 10,5 km/h (2 Bft) W 265 0 min 216 W/m 12,3 C 15,6 C 20,9 km/h (4 Bft)
07.09.2017 16:33 17,5 C 72 % 1009,8 hPa 0,0 l/m 8,7 km/h (2 Bft) W-NW 288 0 min 195 W/m 12,4 C 16,4 C 19,3 km/h (3 Bft)
07.09.2017 16:36 17,6 C 71 % 1009,8 hPa 0,0 l/m 10,5 km/h (2 Bft) W 275 0 min 190 W/m 12,3 C 15,8 C 17,7 km/h (3 Bft)
07.09.2017 16:39 17,6 C 72 % 1009,8 hPa 0,0 l/m 6,2 km/h (2 Bft) N-NW 340 0 min 188 W/m 12,5 C 17,6 C 14,5 km/h (3 Bft)
07.09.2017 16:42 17,6 C 73 % 1009,7 hPa 0,0 l/m 5,4 km/h (2 Bft) W-SW 244 0 min 181 W/m 12,7 C 17,6 C 11,3 km/h (2 Bft)
07.09.2017 16:45 17,6 C 72 % 1009,7 hPa 0,0 l/m 8,4 km/h (2 Bft) W 270 0 min 172 W/m 12,5 C 16,7 C 17,7 km/h (3 Bft)
07.09.2017 16:48 17,5 C 71 % 1009,7 hPa 0,0 l/m 8,5 km/h (2 Bft) W-NW 286 0 min 171 W/m 12,2 C 16,5 C 17,7 km/h (3 Bft)
07.09.2017 16:51 17,5 C 72 % 1009,7 hPa 0,0 l/m 10,0 km/h (2 Bft) W 270 0 min 162 W/m 12,4 C 15,9 C 17,7 km/h (3 Bft)
07.09.2017 16:54 17,5 C 73 % 1009,7 hPa 0,0 l/m 9,4 km/h (2 Bft) W 276 0 min 148 W/m 12,6 C 16,1 C 19,3 km/h (3 Bft)
07.09.2017 16:57 17,4 C 73 % 1009,8 hPa 0,0 l/m 8,4 km/h (2 Bft) SW 228 0 min 137 W/m 12,5 C 16,4 C 17,7 km/h (3 Bft)
07.09.2017 17:00 17,4 C 73 % 1009,7 hPa 0,0 l/m 9,5 km/h (2 Bft) W-NW 298 0 min 132 W/m 12,5 C 16,0 C 16,1 km/h (3 Bft)
07.09.2017 17:03 17,4 C 73 % 1009,7 hPa 0,0 l/m 10,2 km/h (2 Bft) W 269 0 min 139 W/m 12,5 C 15,7 C 22,5 km/h (4 Bft)
07.09.2017 17:06 17,4 C 74 % 1009,6 hPa 0,0 l/m 9,6 km/h (2 Bft) W 271 0 min 148 W/m 12,7 C 15,9 C 17,7 km/h (3 Bft)
07.09.2017 17:09 17,5 C 75 % 1009,6 hPa 0,0 l/m 8,5 km/h (2 Bft) W 273 0 min 125 W/m 13,0 C 16,5 C 17,7 km/h (3 Bft)
07.09.2017 17:12 17,5 C 74 % 1009,6 hPa 0,0 l/m 9,3 km/h (2 Bft) W-NW 282 0 min 155 W/m 12,8 C 16,2 C 14,5 km/h (3 Bft)
07.09.2017 17:15 17,4 C 74 % 1009,6 hPa 0,0 l/m 10,3 km/h (2 Bft) W 273 0 min 137 W/m 12,7 C 15,7 C 19,3 km/h (3 Bft)
07.09.2017 17:18 17,4 C 75 % 1009,5 hPa 0,0 l/m 9,7 km/h (2 Bft) W 275 0 min 142 W/m 12,9 C 15,9 C 17,7 km/h (3 Bft)
07.09.2017 17:21 17,4 C 75 % 1009,5 hPa 0,0 l/m 9,7 km/h (2 Bft) W 267 0 min 149 W/m 12,9 C 15,9 C 16,1 km/h (3 Bft)
07.09.2017 17:24 17,4 C 75 % 1009,4 hPa 0,0 l/m 8,4 km/h (2 Bft) W 273 0 min 165 W/m 12,9 C 16,4 C 12,9 km/h (3 Bft)
07.09.2017 17:27 17,6 C 76 % 1009,4 hPa 0,0 l/m 6,9 km/h (2 Bft) W 261 0 min 176 W/m 13,3 C 17,4 C 14,5 km/h (3 Bft)
07.09.2017 17:30 17,6 C 76 % 1009,4 hPa 0,0 l/m 8,3 km/h (2 Bft) W-SW 238 0 min 171 W/m 13,3 C 16,7 C 17,7 km/h (3 Bft)
07.09.2017 17:33 17,6 C 76 % 1009,3 hPa 0,0 l/m 8,8 km/h (2 Bft) W-SW 237 0 min 146 W/m 13,3 C 16,5 C 16,1 km/h (3 Bft)
07.09.2017 17:36 17,7 C 76 % 1009,3 hPa 0,0 l/m 8,0 km/h (2 Bft) W 275 0 min 141 W/m 13,4 C 16,9 C 16,1 km/h (3 Bft)
07.09.2017 17:39 17,7 C 75 % 1009,3 hPa 0,0 l/m 8,6 km/h (2 Bft) SW 219 0 min 156 W/m 13,2 C 16,7 C 19,3 km/h (3 Bft)
07.09.2017 17:42 17,6 C 75 % 1009,3 hPa 0,0 l/m 4,4 km/h (1 Bft) W 279 3 min 234 W/m 13,1 C 17,6 C 11,3 km/h (2 Bft)
07.09.2017 17:45 17,8 C 75 % 1009,3 hPa 0,0 l/m 7,4 km/h (2 Bft) W 271 3 min 220 W/m 13,3 C 17,3 C 16,1 km/h (3 Bft)
07.09.2017 17:48 17,8 C 74 % 1009,2 hPa 0,0 l/m 8,6 km/h (2 Bft) SW 217 3 min 234 W/m 13,1 C 16,8 C 16,1 km/h (3 Bft)
07.09.2017 17:51 17,9 C 74 % 1009,2 hPa 0,0 l/m 11,7 km/h (2 Bft) W 259 3 min 234 W/m 13,2 C 15,7 C 17,7 km/h (3 Bft)
07.09.2017 17:54 18,0 C 74 % 1009,2 hPa 0,0 l/m 9,0 km/h (2 Bft) W 268 3 min 206 W/m 13,3 C 16,8 C 19,3 km/h (3 Bft)
07.09.2017 17:57 18,0 C 75 % 1009,2 hPa 0,0 l/m 10,5 km/h (2 Bft) W 265 3 min 207 W/m 13,5 C 16,2 C 20,9 km/h (4 Bft)
07.09.2017 18:00 18,0 C 75 % 1009,1 hPa 0,0 l/m 10,4 km/h (2 Bft) SW 215 3 min 218 W/m 13,5 C 16,3 C 16,1 km/h (3 Bft)
07.09.2017 18:03 18,1 C 74 % 1009,2 hPa 0,0 l/m 8,7 km/h (2 Bft) SW 221 3 min 192 W/m 13,4 C 17,1 C 17,7 km/h (3 Bft)
07.09.2017 18:06 18,1 C 72 % 1009,1 hPa 0,0 l/m 9,1 km/h (2 Bft) W-SW 246 3 min 160 W/m 13,0 C 16,9 C 19,3 km/h (3 Bft)
07.09.2017 18:09 17,9 C 70 % 1009,1 hPa 0,0 l/m 10,7 km/h (2 Bft) W 275 3 min 204 W/m 12,3 C 16,1 C 19,3 km/h (3 Bft)
07.09.2017 18:12 17,9 C 71 % 1009,0 hPa 0,0 l/m 11,6 km/h (2 Bft) W-NW 285 3 min 195 W/m 12,6 C 15,7 C 20,9 km/h (4 Bft)
07.09.2017 18:15 18,0 C 71 % 1009,0 hPa 0,0 l/m 8,9 km/h (2 Bft) SW 215 3 min 165 W/m 12,7 C 16,9 C 16,1 km/h (3 Bft)
07.09.2017 18:18 18,1 C 71 % 1009,1 hPa 0,0 l/m 10,0 km/h (2 Bft) S-SW 213 3 min 144 W/m 12,8 C 16,5 C 16,1 km/h (3 Bft)
07.09.2017 18:21 17,9 C 71 % 1009,1 hPa 0,0 l/m 11,3 km/h (2 Bft) W-NW 294 3 min 137 W/m 12,6 C 15,8 C 20,9 km/h (4 Bft)
07.09.2017 18:24 17,8 C 71 % 1009,1 hPa 0,0 l/m 11,5 km/h (2 Bft) W 267 0 min 121 W/m 12,5 C 15,7 C 20,9 km/h (4 Bft)
07.09.2017 18:27 17,8 C 72 % 1009,0 hPa 0,0 l/m 9,1 km/h (2 Bft) W-SW 254 3 min 123 W/m 12,7 C 16,6 C 19,3 km/h (3 Bft)
07.09.2017 18:30 17,8 C 72 % 1009,0 hPa 0,0 l/m 8,2 km/h (2 Bft) SW 235 3 min 163 W/m 12,7 C 17,0 C 12,9 km/h (3 Bft)
07.09.2017 18:33 17,8 C 73 % 1009,0 hPa 0,0 l/m 7,3 km/h (2 Bft) W-SW 240 3 min 160 W/m 12,9 C 17,4 C 14,5 km/h (3 Bft)
07.09.2017 18:36 17,9 C 73 % 1009,1 hPa 0,0 l/m 7,2 km/h (2 Bft) W 281 3 min 113 W/m 13,0 C 17,5 C 16,1 km/h (3 Bft)
07.09.2017 18:39 17,8 C 72 % 1009,0 hPa 0,0 l/m 10,8 km/h (2 Bft) W-NW 294 0 min 86 W/m 12,7 C 15,9 C 17,7 km/h (3 Bft)
07.09.2017 18:42 17,7 C 72 % 1009,0 hPa 0,0 l/m 8,5 km/h (2 Bft) W 275 0 min 83 W/m 12,6 C 16,7 C 16,1 km/h (3 Bft)
07.09.2017 18:45 17,6 C 73 % 1009,0 hPa 0,0 l/m 11,4 km/h (2 Bft) W-SW 244 0 min 77 W/m 12,7 C 15,5 C 20,9 km/h (4 Bft)
07.09.2017 18:48 17,4 C 74 % 1009,0 hPa 0,0 l/m 6,6 km/h (2 Bft) W-NW 286 0 min 74 W/m 12,7 C 17,3 C 12,9 km/h (3 Bft)
07.09.2017 18:51 17,3 C 73 % 1009,1 hPa 0,0 l/m 12,2 km/h (2 Bft) W-NW 292 0 min 69 W/m 12,4 C 14,9 C 25,7 km/h (4 Bft)
07.09.2017 18:54 17,3 C 73 % 1009,1 hPa 0,0 l/m 11,6 km/h (2 Bft) W 276 0 min 63 W/m 12,4 C 15,1 C 19,3 km/h (3 Bft)
07.09.2017 18:57 17,2 C 73 % 1009,1 hPa 0,0 l/m 11,1 km/h (2 Bft) SW 236 0 min 60 W/m 12,3 C 15,1 C 20,9 km/h (4 Bft)
07.09.2017 19:00 17,2 C 74 % 1009,1 hPa 0,0 l/m 7,4 km/h (2 Bft) W 259 0 min 53 W/m 12,5 C 16,7 C 14,5 km/h (3 Bft)
07.09.2017 19:03 17,2 C 75 % 1009,1 hPa 0,0 l/m 8,2 km/h (2 Bft) W-NW 286 0 min 46 W/m 12,7 C 16,3 C 16,1 km/h (3 Bft)
07.09.2017 19:06 17,1 C 76 % 1009,0 hPa 0,0 l/m 8,2 km/h (2 Bft) NW 304 0 min 39 W/m 12,8 C 16,2 C 16,1 km/h (3 Bft)
07.09.2017 19:09 17,0 C 75 % 1009,0 hPa 0,0 l/m 11,6 km/h (2 Bft) SW 233 0 min 33 W/m 12,5 C 14,7 C 20,9 km/h (4 Bft)
07.09.2017 19:12 16,9 C 74 % 1009,0 hPa 0,0 l/m 10,2 km/h (2 Bft) SW 233 0 min 26 W/m 12,2 C 15,1 C 20,9 km/h (4 Bft)
07.09.2017 19:15 16,9 C 75 % 1009,1 hPa 0,0 l/m 7,3 km/h (2 Bft) W-NW 284 0 min 21 W/m 12,4 C 16,4 C 12,9 km/h (3 Bft)
07.09.2017 19:18 16,8 C 75 % 1009,1 hPa 0,0 l/m 11,0 km/h (2 Bft) SW 229 0 min 18 W/m 12,3 C 14,7 C 17,7 km/h (3 Bft)
07.09.2017 19:21 16,8 C 76 % 1009,1 hPa 0,0 l/m 8,1 km/h (2 Bft) S-SW 207 0 min 14 W/m 12,5 C 15,9 C 16,1 km/h (3 Bft)
07.09.2017 19:24 16,8 C 76 % 1009,0 hPa 0,0 l/m 7,0 km/h (2 Bft) SW 223 0 min 12 W/m 12,5 C 16,5 C 14,5 km/h (3 Bft)
07.09.2017 19:27 16,8 C 78 % 1009,0 hPa 0,0 l/m 4,7 km/h (1 Bft) W-SW 244 0 min 12 W/m 12,9 C 16,8 C 14,5 km/h (3 Bft)
07.09.2017 19:30 16,7 C 77 % 1009,0 hPa 0,0 l/m 10,4 km/h (2 Bft) SW 222 0 min 11 W/m 12,6 C 14,8 C 20,9 km/h (4 Bft)
07.09.2017 19:33 16,7 C 77 % 1008,9 hPa 0,0 l/m 9,2 km/h (2 Bft) SW 220 0 min 9 W/m 12,6 C 15,3 C 19,3 km/h (3 Bft)
07.09.2017 19:36 16,6 C 76 % 1009,0 hPa 0,0 l/m 8,7 km/h (2 Bft) SW 234 0 min 9 W/m 12,3 C 15,5 C 12,9 km/h (3 Bft)
07.09.2017 19:39 16,7 C 77 % 1008,9 hPa 0,0 l/m 7,8 km/h (2 Bft) W 269 0 min 9 W/m 12,6 C 16,0 C 12,9 km/h (3 Bft)
07.09.2017 19:42 16,7 C 77 % 1008,9 hPa 0,0 l/m 9,6 km/h (2 Bft) W-SW 238 0 min 9 W/m 12,6 C 15,2 C 17,7 km/h (3 Bft)
07.09.2017 19:45 16,7 C 78 % 1008,8 hPa 0,0 l/m 7,6 km/h (2 Bft) SW 224 0 min 7 W/m 12,8 C 16,1 C 12,9 km/h (3 Bft)
07.09.2017 19:48 16,6 C 78 % 1008,9 hPa 0,0 l/m 8,1 km/h (2 Bft) SW 218 0 min 7 W/m 12,7 C 15,7 C 16,1 km/h (3 Bft)
07.09.2017 19:51 16,5 C 78 % 1008,9 hPa 0,0 l/m 7,8 km/h (2 Bft) W 265 0 min 5 W/m 12,6 C 15,8 C 16,1 km/h (3 Bft)
07.09.2017 19:54 16,4 C 78 % 1008,9 hPa 0,0 l/m 7,7 km/h (2 Bft) W-SW 251 0 min 0 W/m 12,6 C 15,7 C 14,5 km/h (3 Bft)
07.09.2017 19:57 16,4 C 79 % 1008,9 hPa 0,0 l/m 7,9 km/h (2 Bft) SW 234 0 min 0 W/m 12,7 C 15,6 C 11,3 km/h (2 Bft)
07.09.2017 20:00 16,3 C 80 % 1008,9 hPa 0,0 l/m 8,6 km/h (2 Bft) S-SW 209 0 min 0 W/m 12,8 C 15,2 C 16,1 km/h (3 Bft)
07.09.2017 20:03 16,3 C 80 % 1008,9 hPa 0,0 l/m 7,4 km/h (2 Bft) S-SW 211 0 min 0 W/m 12,8 C 15,8 C 16,1 km/h (3 Bft)
07.09.2017 20:06 16,2 C 80 % 1008,9 hPa 0,0 l/m 9,1 km/h (2 Bft) SW 221 0 min 0 W/m 12,7 C 14,8 C 16,1 km/h (3 Bft)
07.09.2017 20:09 16,2 C 80 % 1008,9 hPa 0,0 l/m 9,4 km/h (2 Bft) W-SW 251 0 min 0 W/m 12,7 C 14,7 C 14,5 km/h (3 Bft)
07.09.2017 20:12 16,2 C 79 % 1008,9 hPa 0,0 l/m 8,9 km/h (2 Bft) W-SW 247 0 min 0 W/m 12,6 C 14,9 C 14,5 km/h (3 Bft)
07.09.2017 20:15 16,1 C 79 % 1008,9 hPa 0,0 l/m 10,2 km/h (2 Bft) SW 231 0 min 0 W/m 12,5 C 14,2 C 19,3 km/h (3 Bft)
07.09.2017 20:18 16,2 C 79 % 1008,9 hPa 0,0 l/m 11,0 km/h (2 Bft) S-SW 213 0 min 0 W/m 12,6 C 14,0 C 19,3 km/h (3 Bft)
07.09.2017 20:21 16,2 C 79 % 1008,9 hPa 0,0 l/m 9,1 km/h (2 Bft) S-SW 205 0 min 0 W/m 12,6 C 14,8 C 16,1 km/h (3 Bft)
07.09.2017 20:24 16,2 C 79 % 1008,9 hPa 0,0 l/m 11,0 km/h (2 Bft) SW 227 0 min 0 W/m 12,6 C 14,0 C 19,3 km/h (3 Bft)
07.09.2017 20:27 16,3 C 79 % 1008,8 hPa 0,0 l/m 10,1 km/h (2 Bft) S 189 0 min 0 W/m 12,6 C 14,5 C 17,7 km/h (3 Bft)
07.09.2017 20:30 16,3 C 80 % 1008,9 hPa 0,0 l/m 15,5 km/h (3 Bft) SW 218 0 min 0 W/m 12,8 C 12,6 C 24,1 km/h (4 Bft)
07.09.2017 20:33 16,3 C 81 % 1009,0 hPa 0,0 l/m 13,0 km/h (3 Bft) SW 228 0 min 0 W/m 13,0 C 13,4 C 22,5 km/h (4 Bft)
07.09.2017 20:36 16,2 C 82 % 1009,0 hPa 0,0 l/m 12,1 km/h (2 Bft) SW 223 0 min 0 W/m 13,1 C 13,6 C 20,9 km/h (4 Bft)
07.09.2017 20:39 16,1 C 83 % 1009,0 hPa 0,0 l/m 13,2 km/h (3 Bft) SW 232 0 min 0 W/m 13,2 C 13,1 C 19,3 km/h (3 Bft)
07.09.2017 20:42 15,9 C 84 % 1009,0 hPa 0,0 l/m 9,4 km/h (2 Bft) W-SW 247 0 min 0 W/m 13,2 C 14,4 C 19,3 km/h (3 Bft)
07.09.2017 20:45 15,8 C 84 % 1009,0 hPa 0,0 l/m 10,6 km/h (2 Bft) W-SW 252 0 min 0 W/m 13,1 C 13,7 C 16,1 km/h (3 Bft)
07.09.2017 20:48 15,7 C 85 % 1009,0 hPa 0,0 l/m 8,4 km/h (2 Bft) SW 234 0 min 0 W/m 13,2 C 14,6 C 12,9 km/h (3 Bft)
07.09.2017 20:51 15,7 C 85 % 1009,0 hPa 0,0 l/m 10,8 km/h (2 Bft) SW 230 0 min 0 W/m 13,2 C 13,6 C 17,7 km/h (3 Bft)
07.09.2017 20:54 15,7 C 86 % 1009,0 hPa 0,0 l/m 10,2 km/h (2 Bft) SW 214 0 min 0 W/m 13,4 C 13,8 C 14,5 km/h (3 Bft)
07.09.2017 20:57 15,6 C 86 % 1009,0 hPa 0,0 l/m 7,6 km/h (2 Bft) S-SW 213 0 min 0 W/m 13,3 C 14,9 C 14,5 km/h (3 Bft)
07.09.2017 21:00 15,5 C 86 % 1008,9 hPa 0,0 l/m 6,4 km/h (2 Bft) S-SW 193 0 min 0 W/m 13,2 C 15,5 C 9,7 km/h (2 Bft)
07.09.2017 21:03 15,5 C 87 % 1009,0 hPa 0,0 l/m 6,8 km/h (2 Bft) S-SW 198 0 min 0 W/m 13,3 C 15,3 C 9,7 km/h (2 Bft)
07.09.2017 21:06 15,4 C 87 % 1008,9 hPa 0,0 l/m 6,8 km/h (2 Bft) SW 227 0 min 0 W/m 13,2 C 15,2 C 12,9 km/h (3 Bft)
07.09.2017 21:09 15,4 C 87 % 1008,9 hPa 0,0 l/m 5,9 km/h (2 Bft) S-SW 205 0 min 0 W/m 13,2 C 15,4 C 9,7 km/h (2 Bft)
07.09.2017 21:12 15,3 C 87 % 1008,9 hPa 0,0 l/m 5,8 km/h (2 Bft) S-SW 205 0 min 0 W/m 13,1 C 15,3 C 9,7 km/h (2 Bft)
07.09.2017 21:15 15,3 C 88 % 1009,0 hPa 0,0 l/m 6,8 km/h (2 Bft) S 189 0 min 0 W/m 13,3 C 15,1 C 14,5 km/h (3 Bft)
07.09.2017 21:18 15,3 C 88 % 1008,9 hPa 0,0 l/m 7,2 km/h (2 Bft) W-SW 239 0 min 0 W/m 13,3 C 14,9 C 12,9 km/h (3 Bft)
07.09.2017 21:21 15,3 C 88 % 1008,8 hPa 0,0 l/m 7,5 km/h (2 Bft) S-SW 205 0 min 0 W/m 13,3 C 14,7 C 12,9 km/h (3 Bft)
07.09.2017 21:24 15,3 C 88 % 1008,8 hPa 0,0 l/m 6,5 km/h (2 Bft) S-SW 198 0 min 0 W/m 13,3 C 15,3 C 11,3 km/h (2 Bft)
07.09.2017 21:27 15,2 C 88 % 1008,8 hPa 0,0 l/m 5,2 km/h (1 Bft) SW 225 0 min 0 W/m 13,2 C 15,2 C 9,7 km/h (2 Bft)
07.09.2017 21:30 15,2 C 88 % 1008,8 hPa 0,0 l/m 6,1 km/h (2 Bft) SW 221 0 min 0 W/m 13,2 C 15,2 C 11,3 km/h (2 Bft)
07.09.2017 21:33 15,2 C 88 % 1008,8 hPa 0,0 l/m 7,1 km/h (2 Bft) S-SW 200 0 min 0 W/m 13,2 C 14,8 C 12,9 km/h (3 Bft)
07.09.2017 21:36 15,2 C 88 % 1008,8 hPa 0,0 l/m 5,7 km/h (2 Bft) S-SW 193 0 min 0 W/m 13,2 C 15,2 C 9,7 km/h (2 Bft)
07.09.2017 21:39 15,2 C 88 % 1008,7 hPa 0,0 l/m 5,7 km/h (2 Bft) SW 214 0 min 0 W/m 13,2 C 15,2 C 8,0 km/h (2 Bft)
07.09.2017 21:42 15,2 C 89 % 1008,7 hPa 0,0 l/m 6,2 km/h (2 Bft) SW 236 0 min 0 W/m 13,4 C 15,2 C 11,3 km/h (2 Bft)
07.09.2017 21:45 15,2 C 89 % 1008,7 hPa 0,0 l/m 6,9 km/h (2 Bft) S-SW 194 0 min 0 W/m 13,4 C 14,9 C 12,9 km/h (3 Bft)
07.09.2017 21:48 15,2 C 89 % 1008,6 hPa 0,0 l/m 5,8 km/h (2 Bft) SW 216 0 min 0 W/m 13,4 C 15,2 C 8,0 km/h (2 Bft)
07.09.2017 21:51 15,1 C 89 % 1008,6 hPa 0,0 l/m 7,7 km/h (2 Bft) S 186 0 min 0 W/m 13,3 C 14,4 C 14,5 km/h (3 Bft)
07.09.2017 21:54 15,1 C 89 % 1008,6 hPa 0,0 l/m 6,4 km/h (2 Bft) W-SW 240 0 min 0 W/m 13,3 C 15,1 C 12,9 km/h (3 Bft)
07.09.2017 21:57 15,1 C 88 % 1008,6 hPa 0,0 l/m 7,7 km/h (2 Bft) SW 216 0 min 0 W/m 13,1 C 14,4 C 12,9 km/h (3 Bft)
07.09.2017 22:00 15,1 C 88 % 1008,5 hPa 0,0 l/m 7,3 km/h (2 Bft) S-SW 202 0 min 0 W/m 13,1 C 14,6 C 12,9 km/h (3 Bft)
07.09.2017 22:03 15,1 C 88 % 1008,5 hPa 0,0 l/m 8,8 km/h (2 Bft) SW 227 0 min 0 W/m 13,1 C 13,8 C 14,5 km/h (3 Bft)
07.09.2017 22:06 15,1 C 88 % 1008,6 hPa 0,0 l/m 9,4 km/h (2 Bft) SW 223 0 min 0 W/m 13,1 C 13,5 C 14,5 km/h (3 Bft)
07.09.2017 22:09 15,1 C 88 % 1008,5 hPa 0,0 l/m 10,3 km/h (2 Bft) S-SW 204 0 min 0 W/m 13,1 C 13,1 C 17,7 km/h (3 Bft)
07.09.2017 22:12 15,1 C 88 % 1008,5 hPa 0,0 l/m 11,0 km/h (2 Bft) S-SW 209 0 min 0 W/m 13,1 C 12,8 C 17,7 km/h (3 Bft)
07.09.2017 22:15 15,1 C 88 % 1008,5 hPa 0,0 l/m 10,3 km/h (2 Bft) SW 222 0 min 0 W/m 13,1 C 13,1 C 16,1 km/h (3 Bft)
07.09.2017 22:18 15,1 C 88 % 1008,5 hPa 0,0 l/m 9,3 km/h (2 Bft) SW 230 0 min 0 W/m 13,1 C 13,6 C 16,1 km/h (3 Bft)
07.09.2017 22:21 15,1 C 88 % 1008,4 hPa 0,0 l/m 9,0 km/h (2 Bft) SW 218 0 min 0 W/m 13,1 C 13,7 C 14,5 km/h (3 Bft)
07.09.2017 22:24 15,0 C 88 % 1008,4 hPa 0,0 l/m 7,8 km/h (2 Bft) SW 219 0 min 0 W/m 13,0 C 14,2 C 14,5 km/h (3 Bft)
07.09.2017 22:27 15,0 C 88 % 1008,3 hPa 0,0 l/m 8,0 km/h (2 Bft) SW 221 0 min 0 W/m 13,0 C 14,1 C 14,5 km/h (3 Bft)
07.09.2017 22:30 15,0 C 88 % 1008,3 hPa 0,0 l/m 8,5 km/h (2 Bft) SW 217 0 min 0 W/m 13,0 C 13,8 C 14,5 km/h (3 Bft)
07.09.2017 22:33 15,0 C 88 % 1008,3 hPa 0,0 l/m 6,5 km/h (2 Bft) S 180 0 min 0 W/m 13,0 C 15,0 C 9,7 km/h (2 Bft)
07.09.2017 22:36 14,9 C 88 % 1008,3 hPa 0,0 l/m 8,1 km/h (2 Bft) S-SW 207 0 min 0 W/m 12,9 C 13,9 C 14,5 km/h (3 Bft)
07.09.2017 22:39 14,9 C 88 % 1008,2 hPa 0,0 l/m 7,7 km/h (2 Bft) S-SW 210 0 min 0 W/m 12,9 C 14,2 C 12,9 km/h (3 Bft)
07.09.2017 22:42 14,9 C 88 % 1008,1 hPa 0,0 l/m 8,6 km/h (2 Bft) S 191 0 min 0 W/m 12,9 C 13,7 C 12,9 km/h (3 Bft)
07.09.2017 22:45 14,8 C 88 % 1008,1 hPa 0,0 l/m 6,8 km/h (2 Bft) SW 223 0 min 0 W/m 12,8 C 14,6 C 9,7 km/h (2 Bft)
07.09.2017 22:48 14,8 C 89 % 1008,0 hPa 0,0 l/m 6,0 km/h (2 Bft) S-SW 192 0 min 0 W/m 13,0 C 14,8 C 11,3 km/h (2 Bft)
07.09.2017 22:51 14,7 C 89 % 1007,9 hPa 0,0 l/m 7,8 km/h (2 Bft) S 187 0 min 0 W/m 12,9 C 13,9 C 16,1 km/h (3 Bft)
07.09.2017 22:54 14,7 C 89 % 1007,9 hPa 0,0 l/m 5,9 km/h (2 Bft) S-SW 213 0 min 0 W/m 12,9 C 14,7 C 11,3 km/h (2 Bft)
07.09.2017 22:57 14,6 C 89 % 1007,9 hPa 0,0 l/m 5,1 km/h (1 Bft) S 185 0 min 0 W/m 12,8 C 14,6 C 9,7 km/h (2 Bft)
07.09.2017 23:00 14,6 C 89 % 1007,9 hPa 0,0 l/m 6,6 km/h (2 Bft) S-SW 196 0 min 0 W/m 12,8 C 14,5 C 14,5 km/h (3 Bft)
07.09.2017 23:03 14,6 C 89 % 1007,9 hPa 0,0 l/m 7,3 km/h (2 Bft) SW 214 0 min 0 W/m 12,8 C 14,1 C 11,3 km/h (2 Bft)
07.09.2017 23:06 14,6 C 89 % 1007,9 hPa 0,0 l/m 6,8 km/h (2 Bft) S-SO 166 0 min 0 W/m 12,8 C 14,4 C 14,5 km/h (3 Bft)
07.09.2017 23:09 14,6 C 89 % 1007,8 hPa 0,0 l/m 7,3 km/h (2 Bft) SW 220 0 min 0 W/m 12,8 C 14,1 C 11,3 km/h (2 Bft)
07.09.2017 23:12 14,6 C 89 % 1007,8 hPa 0,0 l/m 5,9 km/h (2 Bft) SW 221 0 min 0 W/m 12,8 C 14,6 C 12,9 km/h (3 Bft)
07.09.2017 23:15 14,6 C 89 % 1007,8 hPa 0,0 l/m 5,7 km/h (2 Bft) S-SW 194 0 min 0 W/m 12,8 C 14,6 C 9,7 km/h (2 Bft)
07.09.2017 23:18 14,6 C 89 % 1007,8 hPa 0,0 l/m 5,6 km/h (2 Bft) S 188 0 min 0 W/m 12,8 C 14,6 C 9,7 km/h (2 Bft)
07.09.2017 23:21 14,6 C 89 % 1007,7 hPa 0,0 l/m 4,9 km/h (1 Bft) S 182 0 min 0 W/m 12,8 C 14,6 C 9,7 km/h (2 Bft)
07.09.2017 23:24 14,6 C 89 % 1007,7 hPa 0,0 l/m 4,8 km/h (1 Bft) S 185 0 min 0 W/m 12,8 C 14,6 C 9,7 km/h (2 Bft)
07.09.2017 23:27 14,6 C 89 % 1007,6 hPa 0,0 l/m 4,6 km/h (1 Bft) S-SO 167 0 min 0 W/m 12,8 C 14,6 C 8,0 km/h (2 Bft)
07.09.2017 23:30 14,6 C 89 % 1007,5 hPa 0,0 l/m 3,7 km/h (1 Bft) S 176 0 min 0 W/m 12,8 C 14,6 C 8,0 km/h (2 Bft)
07.09.2017 23:33 14,6 C 89 % 1007,5 hPa 0,0 l/m 3,7 km/h (1 Bft) S 172 0 min 0 W/m 12,8 C 14,6 C 8,0 km/h (2 Bft)
07.09.2017 23:36 14,6 C 89 % 1007,3 hPa 0,0 l/m 5,9 km/h (2 Bft) S 177 0 min 0 W/m 12,8 C 14,6 C 11,3 km/h (2 Bft)
07.09.2017 23:39 14,6 C 89 % 1007,3 hPa 0,0 l/m 4,5 km/h (1 Bft) S 191 0 min 0 W/m 12,8 C 14,6 C 8,0 km/h (2 Bft)
07.09.2017 23:42 14,5 C 89 % 1007,3 hPa 0,0 l/m 3,8 km/h (1 Bft) SW 218 0 min 0 W/m 12,7 C 14,5 C 8,0 km/h (2 Bft)
07.09.2017 23:45 14,5 C 89 % 1007,2 hPa 0,0 l/m 4,1 km/h (1 Bft) S-SW 194 0 min 0 W/m 12,7 C 14,5 C 8,0 km/h (2 Bft)
07.09.2017 23:48 14,4 C 89 % 1007,2 hPa 0,0 l/m 6,9 km/h (2 Bft) S-SO 168 0 min 0 W/m 12,6 C 14,1 C 11,3 km/h (2 Bft)
07.09.2017 23:51 14,4 C 89 % 1007,2 hPa 0,0 l/m 4,0 km/h (1 Bft) S 182 0 min 0 W/m 12,6 C 14,4 C 8,0 km/h (2 Bft)
07.09.2017 23:54 14,4 C 89 % 1007,2 hPa 0,0 l/m 4,5 km/h (1 Bft) S 181 0 min 0 W/m 12,6 C 14,4 C 8,0 km/h (2 Bft)
07.09.2017 23:57 14,4 C 89 % 1007,1 hPa 0,0 l/m 5,1 km/h (1 Bft) S-SW 196 0 min 0 W/m 12,6 C 14,4 C 8,0 km/h (2 Bft)
_ Min-Zeit 00:36 14:21 23:57 - 07:09 - - - - 02:57 06:42 07:12
Minimum _ 13,2 C 66 % 1007,1 hPa - 3,5 km/h (1 Bft) - - - - 10,7 C 10,1 C 6,4 km/h (2 Bft)
_ Max-Zeit 14:18 00:21 00:00 00:03 06:42 - - 09:45 12:57 12:48 10:51 02:51
Maximum _ 19,7 C 91 % 1010,4 hPa 0,2 l/m 19,2 km/h
W-SW (3 Bft)
- - 3 min 747 W/m 14,5 C 18,4 C 30,6 km/h
W (5 Bft)
Durchschnitt _ 16,0 C 81 % 1009,5 hPa #0,6 l/m 9,3 km/h (2 Bft) W - #3:30 h 206 W/m 12,7 C 14,6 C 18,1 km/h (3 Bft)
2017 Cux-Wetter.de -Die Nutzung der Wetterdaten nur mit ausdrcklicher Genehmigung